| time (UTC) | temp F | wind direction | speed MPH | gust MPH | rain 1hr in | rain 24hr in | rain mn in | humidity % | barometer mb |
| 20260901122603 | 78 | 350 | 1.0 | 2.0 | 0.00 | 0.00 | 0.00 | 91 | 1009.8 |
| 20260901122504 | 78 | 350 | 1.0 | 2.0 | 0.00 | 0.00 | 0.00 | 91 | 1009.7 |
| 20260901122402 | 78 | 350 | 1.0 | 2.0 | 0.00 | 0.00 | 0.00 | 91 | 1009.7 |
| 20260901122306 | 78 | 350 | 1.0 | 2.0 | 0.00 | 0.00 | 0.00 | 91 | 1009.7 |
| 20260901122204 | 78 | 350 | 0.0 | 2.0 | 0.00 | 0.00 | 0.00 | 91 | 1009.6 |
| 20260901122104 | 78 | 350 | 0.0 | 2.0 | 0.00 | 0.00 | 0.00 | 91 | 1009.7 |
| 20260901122004 | 78 | 350 | 0.0 | 2.0 | 0.00 | 0.00 | 0.00 | 91 | 1009.6 |
| 20260901121903 | 78 | 350 | 1.0 | 2.0 | 0.00 | 0.00 | 0.00 | 91 | 1009.6 |
| 20260901121804 | 78 | 350 | 0.0 | 3.0 | 0.00 | 0.00 | 0.00 | 91 | 1009.6 |
| 20260901121704 | 78 | 350 | 0.0 | 3.0 | 0.00 | 0.00 | 0.00 | 91 | 1009.6 |
| 20260901121604 | 78 | 350 | 1.0 | 3.0 | 0.00 | 0.00 | 0.00 | 91 | 1009.6 |
| 20260901121503 | 78 | 350 | 1.0 | 3.0 | 0.00 | 0.00 | 0.00 | 91 | 1009.4 |
| 20260901121403 | 78 | 350 | 1.0 | 3.0 | 0.00 | 0.00 | 0.00 | 91 | 1009.5 |
| 20260901121302 | 78 | 350 | 1.0 | 3.0 | 0.00 | 0.00 | 0.00 | 91 | 1009.4 |
| 20260901121203 | 78 | 350 | 2.0 | 3.0 | 0.00 | 0.00 | 0.00 | 91 | 1009.5 |
| 20260901121103 | 78 | 350 | 2.0 | 3.0 | 0.00 | 0.00 | 0.00 | 91 | 1009.4 |
| 20260901121002 | 78 | 350 | 2.0 | 3.0 | 0.00 | 0.00 | 0.00 | 91 | 1009.4 |
| 20260901120904 | 78 | 350 | 2.0 | 3.0 | 0.00 | 0.00 | 0.00 | 91 | 1009.4 |
| 20260901120802 | 78 | 350 | 1.0 | 2.0 | 0.00 | 0.00 | 0.00 | 91 | 1009.3 |
| 20260901120704 | 78 | 350 | 2.0 | 2.0 | 0.00 | 0.00 | 0.00 | 91 | 1009.4 |
| 20260901120603 | 78 | 350 | 2.0 | 2.0 | 0.00 | 0.00 | 0.00 | 91 | 1009.4 |
| 20260901120505 | 78 | 350 | 2.0 | 2.0 | 0.00 | 0.00 | 0.00 | 91 | 1009.4 |
| 20260901120403 | 78 | 350 | 1.0 | 2.0 | 0.00 | 0.00 | 0.00 | 91 | 1009.4 |
| 20260901120302 | 78 | 350 | 1.0 | 2.0 | 0.00 | 0.00 | 0.00 | 91 | 1009.3 |
| 20260901120203 | 78 | 350 | 1.0 | 2.0 | 0.00 | 0.00 | 0.00 | 91 | 1009.3 |
| 20260901120005 | 78 | 350 | 1.0 | 2.0 | 0.00 | 0.00 | 0.00 | 91 | 1009.3 |
| 20260901115902 | 78 | 350 | 0.0 | 0.0 | 0.00 | 0.00 | 0.00 | 91 | 1009.3 |
| 20260901115803 | 78 | 350 | 0.0 | 0.0 | 0.00 | 0.00 | 0.00 | 91 | 1009.3 |
| 20260901115703 | 78 | 350 | 0.0 | 0.0 | 0.00 | 0.00 | 0.00 | 91 | 1009.3 |
| 20260901115602 | 78 | 350 | 0.0 | 0.0 | 0.00 | 0.00 | 0.00 | 91 | 1009.3 |
| 20260901115504 | 78 | 345 | 0.0 | 0.0 | 0.00 | 0.00 | 0.00 | 91 | 1009.3 |
| 20260901115404 | 78 | 345 | 0.0 | 1.0 | 0.00 | 0.00 | 0.00 | 91 | 1009.3 |
| 20260901115257 | 78 | 345 | 0.0 | 2.0 | 0.00 | 0.00 | 0.00 | 91 | 1009.3 |
| 20260901115150 | 78 | 345 | 0.0 | 3.0 | 0.00 | 0.00 | 0.00 | 91 | 1009.2 |
| 20260901115049 | 78 | 345 | 0.0 | 3.0 | 0.00 | 0.00 | 0.00 | 91 | 1009.1 |
| 20260901114948 | 78 | 345 | 0.0 | 3.0 | 0.00 | 0.00 | 0.00 | 91 | 1009.2 |
| 20260901114846 | 78 | 345 | 0.0 | 3.0 | 0.00 | 0.00 | 0.00 | 91 | 1009.2 |
| 20260901114746 | 78 | 345 | 0.0 | 3.0 | 0.00 | 0.00 | 0.00 | 91 | 1009.2 |
| 20260901114643 | 78 | 345 | 0.0 | 3.0 | 0.00 | 0.00 | 0.00 | 91 | 1009.3 |
| 20260901114542 | 78 | 345 | 1.0 | 3.0 | 0.00 | 0.00 | 0.00 | 91 | 1009.2 |
| 20260901114440 | 78 | 345 | 1.0 | 3.0 | 0.00 | 0.00 | 0.00 | 91 | 1009.2 |
| 20260901114338 | 78 | 345 | 2.0 | 3.0 | 0.00 | 0.00 | 0.00 | 91 | 1009.2 |
| 20260901114237 | 78 | 343 | 2.0 | 3.0 | 0.00 | 0.00 | 0.00 | 91 | 1009.2 |
| 20260901114136 | 78 | 334 | 2.0 | 3.0 | 0.00 | 0.00 | 0.00 | 91 | 1009.1 |
| 20260901114032 | 78 | 334 | 2.0 | 3.0 | 0.00 | 0.00 | 0.00 | 91 | 1009.1 |
| 20260901113930 | 78 | 330 | 2.0 | 3.0 | 0.00 | 0.00 | 0.00 | 91 | 1009.1 |
| 20260901113832 | 78 | 286 | 2.0 | 3.0 | 0.00 | 0.00 | 0.00 | 91 | 1009.2 |
| 20260901113732 | 78 | 285 | 2.0 | 3.0 | 0.00 | 0.00 | 0.00 | 91 | 1009.2 |
| 20260901113630 | 78 | 233 | 0.0 | 2.0 | 0.00 | 0.00 | 0.00 | 91 | 1009.1 |
| 20260901113533 | 78 | 233 | 0.0 | 0.0 | 0.00 | 0.00 | 0.00 | 91 | 1009.2 |
| 20260901113432 | 78 | 231 | 0.0 | 0.0 | 0.00 | 0.00 | 0.00 | 91 | 1009.2 |
| 20260901113331 | 78 | 231 | 0.0 | 0.0 | 0.00 | 0.00 | 0.00 | 91 | 1009.3 |
| 20260901113233 | 78 | 231 | 0.0 | 0.0 | 0.00 | 0.00 | 0.00 | 91 | 1009.3 |
| 20260901113129 | 78 | 231 | 0.0 | 0.0 | 0.00 | 0.00 | 0.00 | 91 | 1009.3 |
| 20260901113030 | 78 | 231 | 0.0 | 0.0 | 0.00 | 0.00 | 0.00 | 91 | 1009.3 |
| 20260901112930 | 78 | 231 | 0.0 | 0.0 | 0.00 | 0.00 | 0.00 | 91 | 1009.3 |
| 20260901112824 | 78 | 230 | 0.0 | 0.0 | 0.00 | 0.00 | 0.00 | 91 | 1009.3 |
| 20260901112721 | 78 | 230 | 0.0 | 0.0 | 0.00 | 0.00 | 0.00 | 91 | 1009.3 |
| 20260901112621 | 78 | 230 | 0.0 | 0.0 | 0.00 | 0.00 | 0.00 | 91 | 1009.3 |
| 20260901112520 | 78 | 230 | 0.0 | 0.0 | 0.00 | 0.00 | 0.00 | 91 | 1009.4 |
| 20260901112420 | 78 | 228 | 0.0 | 0.0 | 0.00 | 0.00 | 0.00 | 91 | 1009.4 |
| 20260901112321 | 78 | 228 | 0.0 | 1.0 | 0.00 | 0.00 | 0.00 | 90 | 1009.3 |
| 20260901112221 | 78 | 228 | 0.0 | 1.0 | 0.00 | 0.00 | 0.00 | 90 | 1009.4 |
| 20260901112120 | 78 | 228 | 0.0 | 2.0 | 0.00 | 0.00 | 0.00 | 91 | 1009.4 |
| 20260901112019 | 78 | 228 | 0.0 | 3.0 | 0.00 | 0.00 | 0.00 | 91 | 1009.4 |
| 20260901111920 | 78 | 228 | 0.0 | 3.0 | 0.00 | 0.00 | 0.00 | 91 | 1009.3 |
| 20260901111820 | 78 | 228 | 0.0 | 3.0 | 0.00 | 0.00 | 0.00 | 91 | 1009.3 |
| 20260901111721 | 78 | 228 | 0.0 | 3.0 | 0.00 | 0.00 | 0.00 | 91 | 1009.3 |
| 20260901111621 | 78 | 227 | 0.0 | 3.0 | 0.00 | 0.00 | 0.00 | 91 | 1009.2 |
| 20260901111521 | 78 | 227 | 0.0 | 3.0 | 0.00 | 0.00 | 0.00 | 91 | 1009.2 |
| 20260901111422 | 78 | 227 | 0.0 | 3.0 | 0.00 | 0.00 | 0.00 | 91 | 1009.2 |
| 20260901111320 | 78 | 227 | 1.0 | 3.0 | 0.00 | 0.00 | 0.00 | 91 | 1009.2 |
| 20260901111220 | 78 | 227 | 2.0 | 3.0 | 0.00 | 0.00 | 0.00 | 91 | 1009.2 |
| 20260901111119 | 78 | 227 | 2.0 | 3.0 | 0.00 | 0.00 | 0.00 | 91 | 1009.2 |
| 20260901111020 | 78 | 227 | 2.0 | 3.0 | 0.00 | 0.00 | 0.00 | 91 | 1009.3 |
| 20260901110920 | 78 | 162 | 1.0 | 2.0 | 0.00 | 0.00 | 0.00 | 90 | 1009.3 |
| 20260901110820 | 78 | 161 | 2.0 | 2.0 | 0.00 | 0.00 | 0.00 | 90 | 1009.3 |
| 20260901110721 | 78 | 161 | 1.0 | 2.0 | 0.00 | 0.00 | 0.00 | 90 | 1009.3 |
| 20260901110619 | 78 | 159 | 0.0 | 2.0 | 0.00 | 0.00 | 0.00 | 90 | 1009.3 |
| 20260901110521 | 78 | 159 | 0.0 | 0.0 | 0.00 | 0.00 | 0.00 | 91 | 1009.3 |
| 20260901110419 | 78 | 159 | 0.0 | 0.0 | 0.00 | 0.00 | 0.00 | 91 | 1009.3 |
| 20260901110320 | 78 | 159 | 0.0 | 0.0 | 0.00 | 0.00 | 0.00 | 91 | 1009.3 |
| 20260901110220 | 78 | 159 | 0.0 | 0.0 | 0.00 | 0.00 | 0.00 | 91 | 1009.3 |
| 20260901110120 | 78 | 159 | 0.0 | 0.0 | 0.00 | 0.00 | 0.00 | 91 | 1009.3 |
| 20260901110021 | 78 | 159 | 0.0 | 0.0 | 0.00 | 0.00 | 0.00 | 90 | 1009.3 |
| 20260901105919 | 78 | 159 | 0.0 | 0.0 | 0.00 | 0.00 | 0.00 | 91 | 1009.3 |
| 20260901105821 | 78 | 159 | 0.0 | 0.0 | 0.00 | 0.00 | 0.00 | 90 | 1009.3 |
| 20260901105719 | 78 | 159 | 0.0 | 0.0 | 0.00 | 0.00 | 0.00 | 90 | 1009.3 |
| 20260901105619 | 78 | 159 | 0.0 | 0.0 | 0.00 | 0.00 | 0.00 | 91 | 1009.3 |
| 20260901105520 | 78 | 159 | 0.0 | 0.0 | 0.00 | 0.00 | 0.00 | 91 | 1009.3 |
| 20260901105421 | 78 | 159 | 0.0 | 0.0 | 0.00 | 0.00 | 0.00 | 91 | 1009.2 |
| 20260901105320 | 78 | 159 | 0.0 | 0.0 | 0.00 | 0.00 | 0.00 | 91 | 1009.3 |
| 20260901105218 | 78 | 159 | 0.0 | 0.0 | 0.00 | 0.00 | 0.00 | 91 | 1009.3 |
| 20260901105120 | 78 | 159 | 0.0 | 0.0 | 0.00 | 0.00 | 0.00 | 91 | 1009.3 |
| 20260901105020 | 78 | 159 | 0.0 | 0.0 | 0.00 | 0.00 | 0.00 | 91 | 1009.2 |
| 20260901104919 | 78 | 159 | 0.0 | 0.0 | 0.00 | 0.00 | 0.00 | 91 | 1009.3 |
| 20260901104819 | 78 | 159 | 0.0 | 0.0 | 0.00 | 0.00 | 0.00 | 91 | 1009.2 |
| 20260901104720 | 78 | 159 | 0.0 | 0.0 | 0.00 | 0.00 | 0.00 | 91 | 1009.2 |
| 20260901104620 | 78 | 159 | 0.0 | 0.0 | 0.00 | 0.00 | 0.00 | 91 | 1009.2 |
| 20260901104520 | 78 | 159 | 0.0 | 0.0 | 0.00 | 0.00 | 0.00 | 91 | 1009.2 |
| 20260901104420 | 78 | 159 | 0.0 | 0.0 | 0.00 | 0.00 | 0.00 | 91 | 1009.1 |
| 20260901104319 | 78 | 159 | 0.0 | 0.0 | 0.00 | 0.00 | 0.00 | 91 | 1009.2 |
| 20260901104218 | 78 | 159 | 0.0 | 0.0 | 0.00 | 0.00 | 0.00 | 91 | 1009.2 |
| 20260901104120 | 78 | 159 | 0.0 | 0.0 | 0.00 | 0.00 | 0.00 | 91 | 1009.2 |
| 20260901104019 | 78 | 159 | 0.0 | 0.0 | 0.00 | 0.00 | 0.00 | 91 | 1009.1 |
| 20260901103919 | 78 | 159 | 0.0 | 0.0 | 0.00 | 0.00 | 0.00 | 91 | 1009.1 |
| 20260901103819 | 78 | 161 | 0.0 | 0.0 | 0.00 | 0.00 | 0.00 | 91 | 1009.1 |
| 20260901103719 | 78 | 161 | 0.0 | 0.0 | 0.00 | 0.00 | 0.00 | 91 | 1009.1 |
| 20260901103618 | 78 | 161 | 0.0 | 0.0 | 0.00 | 0.00 | 0.00 | 91 | 1009.0 |
| 20260901103519 | 78 | 161 | 0.0 | 0.0 | 0.00 | 0.00 | 0.00 | 91 | 1009.1 |
| 20260901103419 | 78 | 161 | 0.0 | 0.0 | 0.00 | 0.00 | 0.00 | 91 | 1009.0 |
| 20260901103319 | 78 | 161 | 0.0 | 0.0 | 0.00 | 0.00 | 0.00 | 91 | 1009.0 |
| 20260901103218 | 78 | 161 | 0.0 | 0.0 | 0.00 | 0.00 | 0.00 | 91 | 1008.9 |
| 20260901103118 | 78 | 161 | 0.0 | 0.0 | 0.00 | 0.00 | 0.00 | 91 | 1008.9 |
| 20260901103020 | 78 | 161 | 0.0 | 0.0 | 0.00 | 0.00 | 0.00 | 91 | 1008.9 |
| 20260901102919 | 78 | 161 | 0.0 | 0.0 | 0.00 | 0.00 | 0.00 | 91 | 1008.9 |
| 20260901102819 | 78 | 159 | 0.0 | 0.0 | 0.00 | 0.00 | 0.00 | 91 | 1008.9 |
| 20260901102718 | 78 | 159 | 0.0 | 0.0 | 0.00 | 0.00 | 0.00 | 91 | 1009.0 |
| 20260901102618 | 78 | 159 | 0.0 | 0.0 | 0.00 | 0.00 | 0.00 | 91 | 1008.9 |
| 20260901102520 | 78 | 159 | 0.0 | 0.0 | 0.00 | 0.00 | 0.00 | 91 | 1009.0 |
| 20260901102418 | 78 | 159 | 0.0 | 0.0 | 0.00 | 0.00 | 0.00 | 91 | 1009.0 |
| 20260901102318 | 78 | 159 | 0.0 | 0.0 | 0.00 | 0.00 | 0.00 | 91 | 1009.0 |
| 20260901102220 | 78 | 159 | 0.0 | 0.0 | 0.00 | 0.00 | 0.00 | 91 | 1009.0 |
| 20260901102120 | 78 | 159 | 0.0 | 0.0 | 0.00 | 0.00 | 0.00 | 90 | 1009.0 |
| 20260901102018 | 78 | 159 | 0.0 | 0.0 | 0.00 | 0.00 | 0.00 | 90 | 1009.0 |
| 20260901101919 | 78 | 159 | 0.0 | 0.0 | 0.00 | 0.00 | 0.00 | 90 | 1009.0 |
| 20260901101819 | 78 | 159 | 0.0 | 0.0 | 0.00 | 0.00 | 0.00 | 91 | 1009.0 |
| 20260901101719 | 78 | 159 | 0.0 | 0.0 | 0.00 | 0.00 | 0.00 | 90 | 1009.0 |
| 20260901101618 | 78 | 159 | 0.0 | 0.0 | 0.00 | 0.00 | 0.00 | 90 | 1009.0 |
| 20260901101519 | 78 | 159 | 0.0 | 0.0 | 0.00 | 0.00 | 0.00 | 90 | 1009.1 |
| 20260901101419 | 78 | 159 | 0.0 | 0.0 | 0.00 | 0.00 | 0.00 | 91 | 1009.1 |
| 20260901101317 | 78 | 159 | 0.0 | 0.0 | 0.00 | 0.00 | 0.00 | 90 | 1009.1 |
| 20260901101219 | 78 | 159 | 0.0 | 0.0 | 0.00 | 0.00 | 0.00 | 90 | 1009.0 |
| 20260901101118 | 78 | 159 | 0.0 | 0.0 | 0.00 | 0.00 | 0.00 | 90 | 1009.1 |
| 20260901101019 | 78 | 159 | 0.0 | 0.0 | 0.00 | 0.00 | 0.00 | 90 | 1009.1 |
| 20260901100920 | 78 | 159 | 0.0 | 0.0 | 0.00 | 0.00 | 0.00 | 90 | 1009.1 |
| 20260901100819 | 78 | 159 | 0.0 | 0.0 | 0.00 | 0.00 | 0.00 | 90 | 1009.1 |
| 20260901100718 | 78 | 159 | 0.0 | 0.0 | 0.00 | 0.00 | 0.00 | 90 | 1009.1 |
| 20260901100621 | 78 | 159 | 0.0 | 0.0 | 0.00 | 0.00 | 0.00 | 90 | 1009.2 |
| 20260901100520 | 78 | 159 | 0.0 | 0.0 | 0.00 | 0.00 | 0.00 | 90 | 1009.1 |
| 20260901100419 | 78 | 159 | 0.0 | 0.0 | 0.00 | 0.00 | 0.00 | 90 | 1009.1 |
| 20260901100318 | 78 | 159 | 0.0 | 0.0 | 0.00 | 0.00 | 0.00 | 90 | 1009.2 |
| 20260901100219 | 78 | 159 | 0.0 | 0.0 | 0.00 | 0.00 | 0.00 | 90 | 1009.1 |
| 20260901100119 | 78 | 159 | 0.0 | 0.0 | 0.00 | 0.00 | 0.00 | 90 | 1009.1 |
| 20260901100019 | 78 | 159 | 0.0 | 0.0 | 0.00 | 0.00 | 0.00 | 90 | 1009.0 |
| 20260901095917 | 79 | 159 | 0.0 | 0.0 | 0.00 | 0.00 | 0.00 | 90 | 1009.0 |
| 20260901095818 | 79 | 159 | 0.0 | 0.0 | 0.00 | 0.00 | 0.00 | 90 | 1009.0 |
| 20260901095718 | 79 | 159 | 0.0 | 0.0 | 0.00 | 0.00 | 0.00 | 90 | 1009.0 |
| 20260901095617 | 79 | 159 | 0.0 | 0.0 | 0.00 | 0.00 | 0.00 | 90 | 1009.0 |
| 20260901095517 | 79 | 159 | 0.0 | 0.0 | 0.00 | 0.00 | 0.00 | 90 | 1009.0 |
| 20260901095418 | 79 | 159 | 0.0 | 0.0 | 0.00 | 0.00 | 0.00 | 90 | 1009.0 |
| 20260901095317 | 79 | 159 | 0.0 | 0.0 | 0.00 | 0.00 | 0.00 | 90 | 1009.1 |
| 20260901095219 | 79 | 159 | 0.0 | 0.0 | 0.00 | 0.00 | 0.00 | 90 | 1009.1 |
| 20260901095118 | 79 | 159 | 0.0 | 0.0 | 0.00 | 0.00 | 0.00 | 90 | 1009.1 |
| 20260901095019 | 79 | 159 | 0.0 | 0.0 | 0.00 | 0.00 | 0.00 | 90 | 1009.2 |
| 20260901094917 | 79 | 159 | 0.0 | 0.0 | 0.00 | 0.00 | 0.00 | 90 | 1009.2 |
| 20260901094817 | 79 | 159 | 0.0 | 0.0 | 0.00 | 0.00 | 0.00 | 90 | 1009.2 |
| 20260901094718 | 79 | 159 | 0.0 | 0.0 | 0.00 | 0.00 | 0.00 | 90 | 1009.1 |
| 20260901094617 | 79 | 159 | 0.0 | 0.0 | 0.00 | 0.00 | 0.00 | 90 | 1009.2 |
| 20260901094520 | 79 | 159 | 0.0 | 0.0 | 0.00 | 0.00 | 0.00 | 90 | 1009.2 |
| 20260901094418 | 79 | 159 | 0.0 | 0.0 | 0.00 | 0.00 | 0.00 | 90 | 1009.2 |
| 20260901094317 | 79 | 159 | 0.0 | 0.0 | 0.00 | 0.00 | 0.00 | 90 | 1009.2 |
| 20260901094220 | 79 | 159 | 0.0 | 0.0 | 0.00 | 0.00 | 0.00 | 90 | 1009.1 |
| 20260901094119 | 78 | 159 | 0.0 | 0.0 | 0.00 | 0.00 | 0.00 | 90 | 1009.1 |
| 20260901094018 | 78 | 159 | 0.0 | 0.0 | 0.00 | 0.00 | 0.00 | 90 | 1009.2 |
| 20260901093917 | 78 | 159 | 0.0 | 0.0 | 0.00 | 0.00 | 0.00 | 90 | 1009.1 |
| 20260901093819 | 78 | 159 | 0.0 | 0.0 | 0.00 | 0.00 | 0.00 | 90 | 1009.2 |
| 20260901093718 | 78 | 159 | 0.0 | 0.0 | 0.00 | 0.00 | 0.00 | 90 | 1009.2 |
| 20260901093619 | 78 | 159 | 0.0 | 0.0 | 0.00 | 0.00 | 0.00 | 90 | 1009.0 |
| 20260901093518 | 78 | 159 | 0.0 | 0.0 | 0.00 | 0.00 | 0.00 | 90 | 1009.1 |
| 20260901093417 | 78 | 159 | 0.0 | 0.0 | 0.00 | 0.00 | 0.00 | 90 | 1009.1 |
| 20260901093318 | 78 | 159 | 0.0 | 0.0 | 0.00 | 0.00 | 0.00 | 90 | 1009.1 |
| 20260901093218 | 78 | 159 | 0.0 | 0.0 | 0.00 | 0.00 | 0.00 | 90 | 1009.2 |
| 20260901093118 | 78 | 159 | 0.0 | 0.0 | 0.00 | 0.00 | 0.00 | 90 | 1009.2 |
| 20260901093018 | 78 | 159 | 0.0 | 0.0 | 0.00 | 0.00 | 0.00 | 90 | 1009.1 |
| 20260901092917 | 78 | 159 | 0.0 | 0.0 | 0.00 | 0.00 | 0.00 | 89 | 1009.1 |
| 20260901092817 | 79 | 159 | 0.0 | 0.0 | 0.00 | 0.00 | 0.00 | 89 | 1009.0 |
| 20260901092719 | 79 | 159 | 0.0 | 0.0 | 0.00 | 0.00 | 0.00 | 90 | 1009.1 |
| 20260901092619 | 79 | 159 | 0.0 | 0.0 | 0.00 | 0.00 | 0.00 | 90 | 1009.1 |
| 20260901092519 | 79 | 159 | 0.0 | 0.0 | 0.00 | 0.00 | 0.00 | 90 | 1009.1 |
| 20260901092418 | 79 | 159 | 0.0 | 0.0 | 0.00 | 0.00 | 0.00 | 89 | 1009.1 |
| 20260901092317 | 79 | 159 | 0.0 | 0.0 | 0.00 | 0.00 | 0.00 | 89 | 1009.1 |
| 20260901092218 | 79 | 159 | 0.0 | 0.0 | 0.00 | 0.00 | 0.00 | 89 | 1009.1 |
| 20260901092120 | 79 | 159 | 0.0 | 0.0 | 0.00 | 0.00 | 0.00 | 89 | 1009.1 |
| 20260901092017 | 79 | 159 | 0.0 | 0.0 | 0.00 | 0.00 | 0.00 | 89 | 1009.1 |
| 20260901091917 | 79 | 161 | 0.0 | 0.0 | 0.00 | 0.00 | 0.00 | 89 | 1009.2 |
| 20260901091817 | 79 | 161 | 0.0 | 0.0 | 0.00 | 0.00 | 0.00 | 89 | 1009.1 |
| 20260901091718 | 79 | 159 | 0.0 | 0.0 | 0.00 | 0.00 | 0.00 | 89 | 1009.1 |
| 20260901091618 | 79 | 161 | 0.0 | 0.0 | 0.00 | 0.00 | 0.00 | 89 | 1009.1 |
| 20260901091517 | 79 | 161 | 0.0 | 0.0 | 0.00 | 0.00 | 0.00 | 89 | 1009.1 |
| 20260901091418 | 79 | 159 | 0.0 | 0.0 | 0.00 | 0.00 | 0.00 | 89 | 1009.1 |
| 20260901091317 | 79 | 161 | 0.0 | 0.0 | 0.00 | 0.00 | 0.00 | 89 | 1009.1 |
| 20260901091218 | 79 | 161 | 0.0 | 0.0 | 0.00 | 0.00 | 0.00 | 89 | 1009.2 |
| 20260901091109 | 79 | 161 | 0.0 | 0.0 | 0.00 | 0.00 | 0.00 | 89 | 1009.1 |
| 20260901091009 | 79 | 161 | 0.0 | 0.0 | 0.00 | 0.00 | 0.00 | 89 | 1009.1 |
| 20260901090907 | 79 | 161 | 0.0 | 0.0 | 0.00 | 0.00 | 0.00 | 89 | 1009.1 |
| 20260901090807 | 79 | 161 | 0.0 | 0.0 | 0.00 | 0.00 | 0.00 | 88 | 1009.2 |
| 20260901090704 | 79 | 161 | 0.0 | 0.0 | 0.00 | 0.00 | 0.00 | 88 | 1009.0 |
| 20260901090603 | 79 | 161 | 0.0 | 0.0 | 0.00 | 0.00 | 0.00 | 88 | 1009.0 |
| 20260901090503 | 79 | 161 | 0.0 | 0.0 | 0.00 | 0.00 | 0.00 | 89 | 1009.1 |
| 20260901090401 | 79 | 161 | 0.0 | 0.0 | 0.00 | 0.00 | 0.00 | 89 | 1009.1 |
| 20260901090304 | 79 | 161 | 0.0 | 0.0 | 0.00 | 0.00 | 0.00 | 89 | 1009.1 |
| 20260901090202 | 79 | 161 | 0.0 | 0.0 | 0.00 | 0.00 | 0.00 | 89 | 1009.1 |
| 20260901090103 | 79 | 161 | 0.0 | 0.0 | 0.00 | 0.00 | 0.00 | 89 | 1009.1 |
| 20260901090003 | 79 | 161 | 0.0 | 0.0 | 0.00 | 0.00 | 0.00 | 89 | 1009.1 |
| 20260901085904 | 79 | 159 | 0.0 | 0.0 | 0.00 | 0.00 | 0.00 | 88 | 1009.1 |
| 20260901085803 | 79 | 161 | 0.0 | 0.0 | 0.00 | 0.00 | 0.00 | 88 | 1009.0 |
| 20260901085700 | 79 | 161 | 0.0 | 0.0 | 0.00 | 0.00 | 0.00 | 88 | 1009.1 |
| 20260901085551 | 79 | 161 | 0.0 | 0.0 | 0.00 | 0.00 | 0.00 | 88 | 1009.0 |
| 20260901085449 | 79 | 159 | 0.0 | 0.0 | 0.00 | 0.00 | 0.00 | 88 | 1009.1 |
| 20260901085346 | 79 | 161 | 0.0 | 0.0 | 0.00 | 0.00 | 0.00 | 88 | 1009.1 |
| 20260901085246 | 79 | 161 | 0.0 | 0.0 | 0.00 | 0.00 | 0.00 | 88 | 1009.1 |
| 20260901085144 | 79 | 161 | 0.0 | 0.0 | 0.00 | 0.00 | 0.00 | 88 | 1009.1 |
| 20260901085043 | 79 | 161 | 0.0 | 0.0 | 0.00 | 0.00 | 0.00 | 88 | 1009.1 |
| 20260901084941 | 80 | 161 | 0.0 | 0.0 | 0.00 | 0.00 | 0.00 | 88 | 1009.2 |
| 20260901084831 | 80 | 161 | 0.0 | 0.0 | 0.00 | 0.00 | 0.00 | 88 | 1009.2 |
| 20260901084730 | 80 | 161 | 0.0 | 0.0 | 0.00 | 0.00 | 0.00 | 88 | 1009.1 |
| 20260901084632 | 80 | 161 | 0.0 | 0.0 | 0.00 | 0.00 | 0.00 | 88 | 1009.2 |
| 20260901084531 | 80 | 161 | 0.0 | 0.0 | 0.00 | 0.00 | 0.00 | 88 | 1009.2 |
| 20260901084431 | 80 | 159 | 0.0 | 0.0 | 0.00 | 0.00 | 0.00 | 88 | 1009.1 |
| 20260901084332 | 80 | 159 | 0.0 | 0.0 | 0.00 | 0.00 | 0.00 | 88 | 1009.2 |
| 20260901084232 | 80 | 161 | 0.0 | 0.0 | 0.00 | 0.00 | 0.00 | 88 | 1009.2 |
| 20260901084131 | 80 | 161 | 0.0 | 0.0 | 0.00 | 0.00 | 0.00 | 88 | 1009.2 |
| 20260901084030 | 80 | 161 | 0.0 | 0.0 | 0.00 | 0.00 | 0.00 | 88 | 1009.2 |
| 20260901083931 | 80 | 161 | 0.0 | 0.0 | 0.00 | 0.00 | 0.00 | 88 | 1009.2 |
| 20260901083831 | 80 | 161 | 0.0 | 0.0 | 0.00 | 0.00 | 0.00 | 88 | 1009.2 |
| 20260901083732 | 80 | 161 | 0.0 | 0.0 | 0.00 | 0.00 | 0.00 | 88 | 1009.3 |
| 20260901083632 | 80 | 161 | 0.0 | 0.0 | 0.00 | 0.00 | 0.00 | 88 | 1009.2 |
| 20260901083531 | 80 | 161 | 0.0 | 0.0 | 0.00 | 0.00 | 0.00 | 88 | 1009.2 |
| 20260901083433 | 80 | 161 | 0.0 | 0.0 | 0.00 | 0.00 | 0.00 | 88 | 1009.3 |
| 20260901083332 | 80 | 161 | 0.0 | 0.0 | 0.00 | 0.00 | 0.00 | 88 | 1009.2 |
| 20260901083219 | 80 | 161 | 0.0 | 0.0 | 0.00 | 0.00 | 0.00 | 88 | 1009.3 |
| 20260901083117 | 80 | 161 | 0.0 | 0.0 | 0.00 | 0.00 | 0.00 | 88 | 1009.3 |
| 20260901083017 | 80 | 161 | 0.0 | 0.0 | 0.00 | 0.00 | 0.00 | 87 | 1009.3 |
| 20260901082916 | 80 | 161 | 0.0 | 0.0 | 0.00 | 0.00 | 0.00 | 87 | 1009.3 |
| 20260901082816 | 80 | 161 | 0.0 | 0.0 | 0.00 | 0.00 | 0.00 | 87 | 1009.3 |
| 20260901082717 | 80 | 161 | 0.0 | 0.0 | 0.00 | 0.00 | 0.00 | 87 | 1009.2 |
| 20260901082615 | 80 | 161 | 0.0 | 0.0 | 0.00 | 0.00 | 0.00 | 87 | 1009.2 |
| 20260901082517 | 80 | 161 | 0.0 | 0.0 | 0.00 | 0.00 | 0.00 | 87 | 1009.2 |
| 20260901082417 | 80 | 161 | 0.0 | 0.0 | 0.00 | 0.00 | 0.00 | 87 | 1009.3 |
| 20260901082316 | 80 | 161 | 0.0 | 0.0 | 0.00 | 0.00 | 0.00 | 87 | 1009.2 |
| 20260901082216 | 80 | 161 | 0.0 | 0.0 | 0.00 | 0.00 | 0.00 | 87 | 1009.3 |
| 20260901082117 | 80 | 161 | 0.0 | 0.0 | 0.00 | 0.00 | 0.00 | 87 | 1009.3 |
| 20260901082016 | 80 | 161 | 0.0 | 0.0 | 0.00 | 0.00 | 0.00 | 87 | 1009.3 |
| 20260901081915 | 80 | 161 | 0.0 | 0.0 | 0.00 | 0.00 | 0.00 | 87 | 1009.3 |
| 20260901081816 | 80 | 161 | 0.0 | 0.0 | 0.00 | 0.00 | 0.00 | 87 | 1009.3 |
| 20260901081716 | 80 | 161 | 0.0 | 0.0 | 0.00 | 0.00 | 0.00 | 87 | 1009.3 |
| 20260901081616 | 80 | 161 | 0.0 | 0.0 | 0.00 | 0.00 | 0.00 | 87 | 1009.4 |
| 20260901081517 | 80 | 161 | 0.0 | 0.0 | 0.00 | 0.00 | 0.00 | 87 | 1009.4 |
| 20260901081415 | 80 | 161 | 0.0 | 0.0 | 0.00 | 0.00 | 0.00 | 87 | 1009.4 |
| 20260901081316 | 80 | 161 | 0.0 | 0.0 | 0.00 | 0.00 | 0.00 | 87 | 1009.4 |
| 20260901081217 | 80 | 161 | 0.0 | 0.0 | 0.00 | 0.00 | 0.00 | 87 | 1009.4 |
| 20260901081116 | 80 | 161 | 0.0 | 0.0 | 0.00 | 0.00 | 0.00 | 87 | 1009.4 |
| 20260901081017 | 81 | 161 | 0.0 | 0.0 | 0.00 | 0.00 | 0.00 | 87 | 1009.4 |
| 20260901080915 | 80 | 161 | 0.0 | 0.0 | 0.00 | 0.00 | 0.00 | 87 | 1009.4 |
| 20260901080815 | 80 | 161 | 0.0 | 0.0 | 0.00 | 0.00 | 0.00 | 87 | 1009.4 |
| 20260901080715 | 80 | 161 | 0.0 | 0.0 | 0.00 | 0.00 | 0.00 | 87 | 1009.4 |
| 20260901080617 | 81 | 161 | 0.0 | 0.0 | 0.00 | 0.00 | 0.00 | 87 | 1009.4 |
| 20260901080514 | 81 | 161 | 0.0 | 0.0 | 0.00 | 0.00 | 0.00 | 87 | 1009.4 |
| 20260901080412 | 81 | 161 | 0.0 | 0.0 | 0.00 | 0.00 | 0.00 | 87 | 1009.4 |
| 20260901080308 | 80 | 161 | 0.0 | 0.0 | 0.00 | 0.00 | 0.00 | 87 | 1009.5 |
| 20260901080208 | 80 | 159 | 0.0 | 0.0 | 0.00 | 0.00 | 0.00 | 87 | 1009.5 |
| 20260901080107 | 80 | 159 | 0.0 | 0.0 | 0.00 | 0.00 | 0.00 | 87 | 1009.5 |
| 20260901080002 | 81 | 159 | 0.0 | 0.0 | 0.00 | 0.00 | 0.00 | 87 | 1009.6 |
| 20260901075904 | 80 | 159 | 0.0 | 0.0 | 0.00 | 0.00 | 0.00 | 87 | 1009.6 |
| 20260901075803 | 80 | 159 | 0.0 | 0.0 | 0.00 | 0.00 | 0.00 | 87 | 1009.5 |
| 20260901075704 | 80 | 159 | 0.0 | 0.0 | 0.00 | 0.00 | 0.00 | 87 | 1009.6 |
| 20260901075603 | 80 | 159 | 0.0 | 0.0 | 0.00 | 0.00 | 0.00 | 87 | 1009.6 |
| 20260901075505 | 80 | 159 | 0.0 | 0.0 | 0.00 | 0.00 | 0.00 | 87 | 1009.6 |
| 20260901075404 | 81 | 159 | 0.0 | 0.0 | 0.00 | 0.00 | 0.00 | 87 | 1009.6 |
| 20260901075307 | 81 | 159 | 0.0 | 0.0 | 0.00 | 0.00 | 0.00 | 87 | 1009.5 |
| 20260901075203 | 81 | 159 | 0.0 | 0.0 | 0.00 | 0.00 | 0.00 | 87 | 1009.6 |
| 20260901075103 | 81 | 159 | 0.0 | 0.0 | 0.00 | 0.00 | 0.00 | 87 | 1009.6 |
| 20260901075001 | 81 | 159 | 0.0 | 0.0 | 0.00 | 0.00 | 0.00 | 87 | 1009.6 |
| 20260901074903 | 80 | 159 | 0.0 | 0.0 | 0.00 | 0.00 | 0.00 | 87 | 1009.6 |
| 20260901074803 | 81 | 159 | 0.0 | 0.0 | 0.00 | 0.00 | 0.00 | 87 | 1009.6 |
| 20260901074703 | 81 | 159 | 0.0 | 0.0 | 0.00 | 0.00 | 0.00 | 87 | 1009.7 |
| 20260901074601 | 81 | 159 | 0.0 | 0.0 | 0.00 | 0.00 | 0.00 | 87 | 1009.6 |
| 20260901074504 | 81 | 159 | 0.0 | 0.0 | 0.00 | 0.00 | 0.00 | 87 | 1009.6 |
| 20260901074404 | 81 | 157 | 0.0 | 0.0 | 0.00 | 0.00 | 0.00 | 86 | 1009.7 |
| 20260901074304 | 81 | 157 | 0.0 | 0.0 | 0.00 | 0.00 | 0.00 | 86 | 1009.6 |
| 20260901074204 | 81 | 157 | 0.0 | 0.0 | 0.00 | 0.00 | 0.00 | 86 | 1009.6 |
| 20260901074103 | 81 | 157 | 0.0 | 0.0 | 0.00 | 0.00 | 0.00 | 86 | 1009.6 |
| 20260901074004 | 81 | 157 | 0.0 | 0.0 | 0.00 | 0.00 | 0.00 | 86 | 1009.6 |
| 20260901073904 | 81 | 157 | 0.0 | 0.0 | 0.00 | 0.00 | 0.00 | 86 | 1009.6 |
| 20260901073802 | 81 | 157 | 0.0 | 0.0 | 0.00 | 0.00 | 0.00 | 86 | 1009.7 |
| 20260901073703 | 81 | 157 | 0.0 | 0.0 | 0.00 | 0.00 | 0.00 | 86 | 1009.6 |
| 20260901073603 | 81 | 157 | 0.0 | 0.0 | 0.00 | 0.00 | 0.00 | 86 | 1009.7 |
| 20260901073503 | 81 | 157 | 0.0 | 0.0 | 0.00 | 0.00 | 0.00 | 86 | 1009.6 |
| 20260901073403 | 81 | 157 | 0.0 | 0.0 | 0.00 | 0.00 | 0.00 | 86 | 1009.6 |
| 20260901073303 | 81 | 157 | 0.0 | 0.0 | 0.00 | 0.00 | 0.00 | 86 | 1009.7 |
| 20260901073204 | 81 | 157 | 0.0 | 0.0 | 0.00 | 0.00 | 0.00 | 86 | 1009.6 |
| 20260901073103 | 81 | 157 | 0.0 | 0.0 | 0.00 | 0.00 | 0.00 | 86 | 1009.6 |
| 20260901073003 | 81 | 157 | 0.0 | 0.0 | 0.00 | 0.00 | 0.00 | 86 | 1009.6 |
| 20260901072903 | 81 | 157 | 0.0 | 0.0 | 0.00 | 0.00 | 0.00 | 86 | 1009.6 |
| 20260901072804 | 81 | 157 | 0.0 | 0.0 | 0.00 | 0.00 | 0.00 | 86 | 1009.6 |
| 20260901072702 | 81 | 157 | 0.0 | 0.0 | 0.00 | 0.00 | 0.00 | 86 | 1009.6 |
| 20260901072603 | 81 | 157 | 0.0 | 0.0 | 0.00 | 0.00 | 0.00 | 86 | 1009.6 |
| 20260901072504 | 81 | 157 | 0.0 | 0.0 | 0.00 | 0.00 | 0.00 | 86 | 1009.6 |
| 20260901072403 | 81 | 157 | 0.0 | 0.0 | 0.00 | 0.00 | 0.00 | 86 | 1009.7 |
| 20260901072302 | 81 | 157 | 0.0 | 0.0 | 0.00 | 0.00 | 0.00 | 86 | 1009.6 |
| 20260901072204 | 81 | 157 | 0.0 | 0.0 | 0.00 | 0.00 | 0.00 | 85 | 1009.6 |
| 20260901072103 | 81 | 157 | 0.0 | 0.0 | 0.00 | 0.00 | 0.00 | 85 | 1009.6 |
| 20260901072003 | 81 | 157 | 0.0 | 0.0 | 0.00 | 0.00 | 0.00 | 85 | 1009.6 |
| 20260901071904 | 81 | 157 | 0.0 | 0.0 | 0.00 | 0.00 | 0.00 | 85 | 1009.5 |
| 20260901071804 | 81 | 157 | 0.0 | 0.0 | 0.00 | 0.00 | 0.00 | 85 | 1009.5 |
| 20260901071702 | 81 | 157 | 0.0 | 0.0 | 0.00 | 0.00 | 0.00 | 85 | 1009.5 |
| 20260901071603 | 81 | 157 | 0.0 | 0.0 | 0.00 | 0.00 | 0.00 | 85 | 1009.4 |
| 20260901071502 | 81 | 157 | 0.0 | 0.0 | 0.00 | 0.00 | 0.00 | 85 | 1009.5 |
| 20260901071402 | 81 | 157 | 0.0 | 0.0 | 0.00 | 0.00 | 0.00 | 85 | 1009.5 |
| 20260901071304 | 81 | 157 | 0.0 | 0.0 | 0.00 | 0.00 | 0.00 | 85 | 1009.4 |
| 20260901071204 | 81 | 157 | 0.0 | 1.0 | 0.00 | 0.00 | 0.00 | 85 | 1009.5 |
| 20260901071104 | 81 | 157 | 0.0 | 1.0 | 0.00 | 0.00 | 0.00 | 85 | 1009.6 |
| 20260901071003 | 81 | 157 | 0.0 | 1.0 | 0.00 | 0.00 | 0.00 | 84 | 1009.5 |
| 20260901070903 | 81 | 157 | 0.0 | 1.0 | 0.00 | 0.00 | 0.00 | 84 | 1009.6 |
| 20260901070804 | 81 | 157 | 0.0 | 1.0 | 0.00 | 0.00 | 0.00 | 84 | 1009.5 |
| 20260901070703 | 81 | 157 | 0.0 | 1.0 | 0.00 | 0.00 | 0.00 | 84 | 1009.5 |
| 20260901070602 | 81 | 157 | 0.0 | 1.0 | 0.00 | 0.00 | 0.00 | 84 | 1009.5 |
| 20260901070534 | 81 | 157 | 0.0 | 1.0 | 0.00 | 0.00 | 0.00 | 84 | 1009.5 |
| 20260901070520 | 81 | 157 | 0.0 | 1.0 | 0.00 | 0.00 | 0.00 | 84 | 1009.6 |
| 20260901070453 | 81 | 157 | 0.0 | 1.0 | 0.00 | 0.00 | 0.00 | 84 | 1009.5 |
| 20260901070432 | 81 | 157 | 0.0 | 1.0 | 0.00 | 0.00 | 0.00 | 84 | 1009.5 |
| 20260901070103 | 81 | 157 | 0.0 | 1.0 | 0.00 | 0.00 | 0.00 | 84 | 1009.5 |
| 20260901070003 | 81 | 157 | 0.0 | 1.0 | 0.00 | 0.00 | 0.00 | 84 | 1009.5 |
| 20260901065902 | 81 | 157 | 0.0 | 1.0 | 0.00 | 0.00 | 0.00 | 84 | 1009.5 |
| 20260901065802 | 81 | 157 | 1.0 | 1.0 | 0.00 | 0.00 | 0.00 | 84 | 1009.6 |
| 20260901065704 | 81 | 157 | 0.0 | 1.0 | 0.00 | 0.00 | 0.00 | 84 | 1009.5 |
| 20260901065605 | 81 | 157 | 0.0 | 1.0 | 0.00 | 0.00 | 0.00 | 84 | 1009.5 |
| 20260901065502 | 81 | 157 | 1.0 | 1.0 | 0.00 | 0.00 | 0.00 | 84 | 1009.6 |
| 20260901065403 | 81 | 157 | 0.0 | 1.0 | 0.00 | 0.00 | 0.00 | 83 | 1009.6 |
| 20260901065305 | 81 | 157 | 0.0 | 1.0 | 0.00 | 0.00 | 0.00 | 83 | 1009.6 |
| 20260901065202 | 82 | 157 | 0.0 | 0.0 | 0.00 | 0.00 | 0.00 | 84 | 1009.6 |
| 20260901065104 | 82 | 157 | 0.0 | 0.0 | 0.00 | 0.00 | 0.00 | 84 | 1009.6 |
| 20260901065003 | 82 | 157 | 0.0 | 0.0 | 0.00 | 0.00 | 0.00 | 84 | 1009.6 |
| 20260901064902 | 82 | 157 | 0.0 | 0.0 | 0.00 | 0.00 | 0.00 | 84 | 1009.6 |
| 20260901064802 | 82 | 157 | 0.0 | 0.0 | 0.00 | 0.00 | 0.00 | 83 | 1009.6 |
| 20260901064703 | 82 | 157 | 0.0 | 0.0 | 0.00 | 0.00 | 0.00 | 83 | 1009.7 |
| 20260901064603 | 82 | 157 | 0.0 | 0.0 | 0.00 | 0.00 | 0.00 | 83 | 1009.7 |
| 20260901064503 | 82 | 157 | 0.0 | 1.0 | 0.00 | 0.00 | 0.00 | 83 | 1009.7 |
| 20260901064403 | 82 | 157 | 0.0 | 1.0 | 0.00 | 0.00 | 0.00 | 83 | 1009.6 |
| 20260901064304 | 82 | 157 | 0.0 | 1.0 | 0.00 | 0.00 | 0.00 | 83 | 1009.7 |
| 20260901064202 | 82 | 157 | 0.0 | 1.0 | 0.00 | 0.00 | 0.00 | 83 | 1009.6 |
| 20260901064104 | 82 | 157 | 0.0 | 1.0 | 0.00 | 0.00 | 0.00 | 83 | 1009.6 |
| 20260901064003 | 82 | 157 | 0.0 | 1.0 | 0.00 | 0.00 | 0.00 | 83 | 1009.6 |
| 20260901063904 | 82 | 157 | 0.0 | 1.0 | 0.00 | 0.00 | 0.00 | 83 | 1009.6 |
| 20260901063802 | 82 | 157 | 0.0 | 1.0 | 0.00 | 0.00 | 0.00 | 83 | 1009.6 |
| 20260901063704 | 82 | 157 | 0.0 | 1.0 | 0.00 | 0.00 | 0.00 | 83 | 1009.6 |
| 20260901063603 | 82 | 157 | 0.0 | 1.0 | 0.00 | 0.00 | 0.00 | 83 | 1009.6 |
| 20260901063503 | 82 | 157 | 0.0 | 1.0 | 0.00 | 0.00 | 0.00 | 83 | 1009.6 |
| 20260901063403 | 82 | 157 | 0.0 | 1.0 | 0.00 | 0.00 | 0.00 | 83 | 1009.7 |
| 20260901063304 | 82 | 157 | 0.0 | 1.0 | 0.00 | 0.00 | 0.00 | 83 | 1009.6 |
| 20260901063202 | 82 | 157 | 0.0 | 1.0 | 0.00 | 0.00 | 0.00 | 83 | 1009.7 |
| 20260901063105 | 82 | 157 | 0.0 | 1.0 | 0.00 | 0.00 | 0.00 | 83 | 1009.7 |
| 20260901063003 | 82 | 157 | 0.0 | 1.0 | 0.00 | 0.00 | 0.00 | 84 | 1009.6 |
| 20260901062902 | 82 | 157 | 0.0 | 1.0 | 0.00 | 0.00 | 0.00 | 84 | 1009.7 |
| 20260901062803 | 82 | 157 | 0.0 | 1.0 | 0.00 | 0.00 | 0.00 | 84 | 1009.7 |
| 20260901062702 | 82 | 157 | 0.0 | 1.0 | 0.00 | 0.00 | 0.00 | 84 | 1009.7 |
| 20260901062604 | 82 | 157 | 0.0 | 1.0 | 0.00 | 0.00 | 0.00 | 84 | 1009.7 |
| 20260901062503 | 82 | 157 | 0.0 | 1.0 | 0.00 | 0.00 | 0.00 | 83 | 1009.7 |
| 20260901062403 | 82 | 157 | 0.0 | 1.0 | 0.00 | 0.00 | 0.00 | 84 | 1009.7 |
| 20260901062309 | 82 | 157 | 0.0 | 1.0 | 0.00 | 0.00 | 0.00 | 83 | 1009.6 |
| 20260901062202 | 82 | 157 | 0.0 | 1.0 | 0.00 | 0.00 | 0.00 | 83 | 1009.7 |
| 20260901062104 | 82 | 157 | 0.0 | 1.0 | 0.00 | 0.00 | 0.00 | 83 | 1009.7 |
| 20260901062004 | 82 | 157 | 0.0 | 1.0 | 0.00 | 0.00 | 0.00 | 83 | 1009.7 |
| 20260901061904 | 82 | 157 | 0.0 | 1.0 | 0.00 | 0.00 | 0.00 | 83 | 1009.7 |
| 20260901061802 | 82 | 157 | 0.0 | 1.0 | 0.00 | 0.00 | 0.00 | 83 | 1009.7 |
| 20260901061704 | 82 | 157 | 0.0 | 1.0 | 0.00 | 0.00 | 0.00 | 83 | 1009.7 |
| 20260901061602 | 82 | 157 | 0.0 | 1.0 | 0.00 | 0.00 | 0.00 | 83 | 1009.7 |
| 20260901061504 | 82 | 157 | 0.0 | 1.0 | 0.00 | 0.00 | 0.00 | 83 | 1009.7 |
| 20260901061402 | 82 | 157 | 0.0 | 0.0 | 0.00 | 0.00 | 0.00 | 83 | 1009.7 |
| 20260901061303 | 82 | 157 | 0.0 | 0.0 | 0.00 | 0.00 | 0.00 | 83 | 1009.8 |
| 20260901061204 | 82 | 157 | 0.0 | 0.0 | 0.00 | 0.00 | 0.00 | 83 | 1009.7 |
| 20260901061102 | 82 | 157 | 0.0 | 0.0 | 0.00 | 0.00 | 0.00 | 82 | 1009.7 |
| 20260901061005 | 82 | 157 | 0.0 | 0.0 | 0.00 | 0.00 | 0.00 | 82 | 1009.7 |
| 20260901060903 | 82 | 157 | 0.0 | 0.0 | 0.00 | 0.00 | 0.00 | 82 | 1009.7 |
| 20260901060803 | 82 | 157 | 0.0 | 0.0 | 0.00 | 0.00 | 0.00 | 82 | 1009.8 |
| 20260901060702 | 82 | 157 | 0.0 | 0.0 | 0.00 | 0.00 | 0.00 | 82 | 1009.8 |
| 20260901060602 | 82 | 157 | 0.0 | 0.0 | 0.00 | 0.00 | 0.00 | 82 | 1009.7 |
| 20260901060505 | 82 | 157 | 0.0 | 0.0 | 0.00 | 0.00 | 0.00 | 82 | 1009.8 |
| 20260901060402 | 82 | 157 | 0.0 | 0.0 | 0.00 | 0.00 | 0.00 | 82 | 1009.7 |
| 20260901060303 | 83 | 157 | 0.0 | 0.0 | 0.00 | 0.00 | 0.00 | 82 | 1009.8 |
| 20260901060203 | 83 | 157 | 0.0 | 0.0 | 0.00 | 0.00 | 0.00 | 81 | 1009.7 |
| 20260901060005 | 83 | 157 | 0.0 | 0.0 | 0.00 | 0.00 | 0.00 | 81 | 1009.7 |
| 20260901055902 | 83 | 157 | 0.0 | 0.0 | 0.00 | 0.00 | 0.00 | 81 | 1009.7 |
| 20260901055803 | 83 | 157 | 0.0 | 0.0 | 0.00 | 0.00 | 0.00 | 81 | 1009.6 |
| 20260901055703 | 83 | 157 | 0.0 | 0.0 | 0.00 | 0.00 | 0.00 | 81 | 1009.6 |
| 20260901055604 | 83 | 157 | 0.0 | 0.0 | 0.00 | 0.00 | 0.00 | 81 | 1009.7 |
| 20260901055503 | 83 | 157 | 0.0 | 0.0 | 0.00 | 0.00 | 0.00 | 81 | 1009.8 |
| 20260901055402 | 83 | 157 | 0.0 | 0.0 | 0.00 | 0.00 | 0.00 | 81 | 1009.8 |
| 20260901055301 | 83 | 157 | 0.0 | 0.0 | 0.00 | 0.00 | 0.00 | 81 | 1009.8 |
| 20260901055202 | 83 | 157 | 0.0 | 0.0 | 0.00 | 0.00 | 0.00 | 81 | 1009.8 |
| 20260901055103 | 83 | 157 | 0.0 | 0.0 | 0.00 | 0.00 | 0.00 | 81 | 1009.7 |
| 20260901055004 | 83 | 157 | 0.0 | 0.0 | 0.00 | 0.00 | 0.00 | 81 | 1009.7 |
| 20260901054902 | 83 | 157 | 0.0 | 0.0 | 0.00 | 0.00 | 0.00 | 81 | 1009.7 |
| 20260901054804 | 83 | 157 | 0.0 | 1.0 | 0.00 | 0.00 | 0.00 | 80 | 1009.7 |
| 20260901054702 | 83 | 157 | 0.0 | 1.0 | 0.00 | 0.00 | 0.00 | 80 | 1009.7 |
| 20260901054603 | 83 | 157 | 0.0 | 1.0 | 0.00 | 0.00 | 0.00 | 80 | 1009.7 |
| 20260901054503 | 83 | 157 | 0.0 | 1.0 | 0.00 | 0.00 | 0.00 | 80 | 1009.7 |
| 20260901054404 | 83 | 157 | 0.0 | 1.0 | 0.00 | 0.00 | 0.00 | 80 | 1009.8 |
| 20260901054304 | 83 | 157 | 0.0 | 1.0 | 0.00 | 0.00 | 0.00 | 80 | 1009.7 |
| 20260901054203 | 83 | 157 | 0.0 | 1.0 | 0.00 | 0.00 | 0.00 | 80 | 1009.7 |
| 20260901054103 | 83 | 157 | 0.0 | 1.0 | 0.00 | 0.00 | 0.00 | 80 | 1009.7 |
| 20260901054002 | 83 | 157 | 0.0 | 1.0 | 0.00 | 0.00 | 0.00 | 80 | 1009.7 |
| 20260901053903 | 83 | 157 | 0.0 | 1.0 | 0.00 | 0.00 | 0.00 | 80 | 1009.7 |
| 20260901053804 | 83 | 157 | 0.0 | 1.0 | 0.00 | 0.00 | 0.00 | 80 | 1009.6 |
| 20260901053702 | 83 | 157 | 0.0 | 1.0 | 0.00 | 0.00 | 0.00 | 80 | 1009.6 |
| 20260901053602 | 83 | 157 | 0.0 | 1.0 | 0.00 | 0.00 | 0.00 | 80 | 1009.6 |
| 20260901053502 | 83 | 157 | 0.0 | 1.0 | 0.00 | 0.00 | 0.00 | 80 | 1009.7 |
| 20260901053403 | 83 | 157 | 0.0 | 1.0 | 0.00 | 0.00 | 0.00 | 80 | 1009.7 |
| 20260901053303 | 83 | 157 | 0.0 | 1.0 | 0.00 | 0.00 | 0.00 | 81 | 1009.7 |
| 20260901053204 | 83 | 157 | 0.0 | 1.0 | 0.00 | 0.00 | 0.00 | 81 | 1009.7 |
| 20260901053103 | 83 | 157 | 0.0 | 1.0 | 0.00 | 0.00 | 0.00 | 81 | 1009.6 |
| 20260901053004 | 83 | 157 | 0.0 | 1.0 | 0.00 | 0.00 | 0.00 | 81 | 1009.6 |
| 20260901052903 | 83 | 157 | 0.0 | 1.0 | 0.00 | 0.00 | 0.00 | 81 | 1009.6 |
| 20260901052804 | 83 | 157 | 0.0 | 1.0 | 0.00 | 0.00 | 0.00 | 81 | 1009.6 |
| 20260901052704 | 83 | 157 | 0.0 | 0.0 | 0.00 | 0.00 | 0.00 | 81 | 1009.6 |
| 20260901052602 | 83 | 157 | 0.0 | 0.0 | 0.00 | 0.00 | 0.00 | 81 | 1009.6 |
| 20260901052505 | 83 | 157 | 0.0 | 0.0 | 0.00 | 0.00 | 0.00 | 81 | 1009.6 |
| 20260901052403 | 83 | 157 | 0.0 | 1.0 | 0.00 | 0.00 | 0.00 | 80 | 1009.6 |
| 20260901052306 | 83 | 157 | 0.0 | 1.0 | 0.00 | 0.00 | 0.00 | 80 | 1009.5 |
| 20260901052203 | 83 | 157 | 0.0 | 1.0 | 0.00 | 0.00 | 0.00 | 80 | 1009.5 |
| 20260901052104 | 83 | 157 | 0.0 | 1.0 | 0.00 | 0.00 | 0.00 | 80 | 1009.5 |
| 20260901052004 | 83 | 157 | 0.0 | 2.0 | 0.00 | 0.00 | 0.00 | 80 | 1009.6 |
| 20260901051904 | 84 | 157 | 0.0 | 2.0 | 0.00 | 0.00 | 0.00 | 80 | 1009.5 |
| 20260901051804 | 84 | 157 | 0.0 | 2.0 | 0.00 | 0.00 | 0.00 | 80 | 1009.6 |
| 20260901051704 | 84 | 157 | 0.0 | 2.0 | 0.00 | 0.00 | 0.00 | 80 | 1009.5 |
| 20260901051603 | 84 | 157 | 0.0 | 2.0 | 0.00 | 0.00 | 0.00 | 80 | 1009.5 |
| 20260901051504 | 84 | 157 | 0.0 | 2.0 | 0.00 | 0.00 | 0.00 | 80 | 1009.5 |
| 20260901051402 | 84 | 157 | 0.0 | 2.0 | 0.00 | 0.00 | 0.00 | 80 | 1009.4 |
| 20260901051303 | 84 | 157 | 0.0 | 2.0 | 0.00 | 0.00 | 0.00 | 80 | 1009.5 |
| 20260901051204 | 84 | 157 | 0.0 | 2.0 | 0.00 | 0.00 | 0.00 | 80 | 1009.5 |
| 20260901051103 | 84 | 157 | 0.0 | 2.0 | 0.00 | 0.00 | 0.00 | 80 | 1009.5 |
| 20260901051003 | 84 | 157 | 0.0 | 2.0 | 0.00 | 0.00 | 0.00 | 80 | 1009.5 |
| 20260901050903 | 84 | 157 | 0.0 | 2.0 | 0.00 | 0.00 | 0.00 | 80 | 1009.5 |
| 20260901050803 | 84 | 157 | 0.0 | 2.0 | 0.00 | 0.00 | 0.00 | 80 | 1009.5 |
| 20260901050703 | 84 | 157 | 0.0 | 2.0 | 0.00 | 0.00 | 0.00 | 80 | 1009.5 |
| 20260901050602 | 84 | 157 | 0.0 | 2.0 | 0.00 | 0.00 | 0.00 | 80 | 1009.5 |
| 20260901050503 | 84 | 157 | 1.0 | 2.0 | 0.00 | 0.00 | 0.00 | 80 | 1009.4 |
| 20260901050403 | 84 | 157 | 0.0 | 2.0 | 0.00 | 0.00 | 0.00 | 80 | 1009.4 |
| 20260901050302 | 84 | 157 | 0.0 | 2.0 | 0.00 | 0.00 | 0.00 | 80 | 1009.4 |
| 20260901050202 | 84 | 157 | 0.0 | 2.0 | 0.00 | 0.00 | 0.00 | 80 | 1009.3 |
| 20260901050002 | 84 | 157 | 0.0 | 2.0 | 0.00 | 0.00 | 0.00 | 80 | 1009.3 |
| 20260901045903 | 84 | 157 | 0.0 | 2.0 | 0.00 | 0.00 | 0.00 | 80 | 1009.3 |
| 20260901045802 | 84 | 157 | 0.0 | 4.0 | 0.00 | 0.00 | 0.00 | 80 | 1009.3 |
| 20260901045703 | 84 | 157 | 0.0 | 4.0 | 0.00 | 0.00 | 0.00 | 80 | 1009.3 |
| 20260901045603 | 84 | 157 | 0.0 | 4.0 | 0.00 | 0.00 | 0.00 | 80 | 1009.4 |
| 20260901045505 | 84 | 157 | 0.0 | 4.0 | 0.00 | 0.00 | 0.00 | 80 | 1009.4 |
| 20260901045404 | 84 | 157 | 0.0 | 4.0 | 0.00 | 0.00 | 0.00 | 80 | 1009.4 |
| 20260901045306 | 84 | 157 | 0.0 | 4.0 | 0.00 | 0.00 | 0.00 | 80 | 1009.4 |
| 20260901045202 | 84 | 157 | 1.0 | 4.0 | 0.00 | 0.00 | 0.00 | 80 | 1009.3 |
| 20260901045103 | 84 | 157 | 0.0 | 4.0 | 0.00 | 0.00 | 0.00 | 80 | 1009.3 |
| 20260901045003 | 84 | 158 | 1.0 | 4.0 | 0.00 | 0.00 | 0.00 | 80 | 1009.3 |
| 20260901044902 | 84 | 158 | 1.0 | 4.0 | 0.00 | 0.00 | 0.00 | 80 | 1009.3 |
| 20260901044801 | 84 | 162 | 1.0 | 3.0 | 0.00 | 0.00 | 0.00 | 80 | 1009.4 |
| 20260901044702 | 84 | 162 | 2.0 | 3.0 | 0.00 | 0.00 | 0.00 | 80 | 1009.3 |
| 20260901044604 | 84 | 164 | 2.0 | 3.0 | 0.00 | 0.00 | 0.00 | 80 | 1009.3 |
| 20260901044502 | 84 | 145 | 2.0 | 2.0 | 0.00 | 0.00 | 0.00 | 80 | 1009.2 |
| 20260901044405 | 84 | 147 | 2.0 | 2.0 | 0.00 | 0.00 | 0.00 | 80 | 1009.3 |
| 20260901044304 | 84 | 145 | 1.0 | 3.0 | 0.00 | 0.00 | 0.00 | 80 | 1009.3 |
| 20260901044202 | 84 | 145 | 0.0 | 3.0 | 0.00 | 0.00 | 0.00 | 80 | 1009.3 |
| 20260901044102 | 84 | 145 | 1.0 | 3.0 | 0.00 | 0.00 | 0.00 | 80 | 1009.2 |
| 20260901044005 | 84 | 144 | 1.0 | 3.0 | 0.00 | 0.00 | 0.00 | 80 | 1009.2 |
| 20260901043902 | 84 | 142 | 0.0 | 3.0 | 0.00 | 0.00 | 0.00 | 80 | 1009.2 |
| 20260901043803 | 84 | 142 | 1.0 | 3.0 | 0.00 | 0.00 | 0.00 | 80 | 1009.2 |
| 20260901043704 | 84 | 142 | 1.0 | 3.0 | 0.00 | 0.00 | 0.00 | 80 | 1009.2 |
| 20260901043602 | 84 | 144 | 1.0 | 3.0 | 0.00 | 0.00 | 0.00 | 80 | 1009.2 |
| 20260901043503 | 84 | 142 | 1.0 | 3.0 | 0.00 | 0.00 | 0.00 | 80 | 1009.2 |
| 20260901043404 | 84 | 147 | 1.0 | 5.0 | 0.00 | 0.00 | 0.00 | 79 | 1009.1 |
| 20260901043303 | 84 | 147 | 1.0 | 5.0 | 0.00 | 0.00 | 0.00 | 80 | 1009.2 |
| 20260901043202 | 84 | 147 | 2.0 | 5.0 | 0.00 | 0.00 | 0.00 | 80 | 1009.1 |
| 20260901043102 | 84 | 149 | 2.0 | 5.0 | 0.00 | 0.00 | 0.00 | 79 | 1009.1 |
| 20260901043003 | 85 | 151 | 1.0 | 5.0 | 0.00 | 0.00 | 0.00 | 79 | 1009.1 |
| 20260901042903 | 85 | 137 | 0.0 | 5.0 | 0.00 | 0.00 | 0.00 | 79 | 1009.1 |
| 20260901042803 | 85 | 137 | 1.0 | 5.0 | 0.00 | 0.00 | 0.00 | 79 | 1009.2 |
| 20260901042702 | 85 | 137 | 2.0 | 5.0 | 0.00 | 0.00 | 0.00 | 79 | 1009.1 |
| 20260901042603 | 85 | 135 | 3.0 | 5.0 | 0.00 | 0.00 | 0.00 | 79 | 1009.1 |
| 20260901042502 | 85 | 140 | 2.0 | 5.0 | 0.00 | 0.00 | 0.00 | 79 | 1009.2 |
| 20260901042403 | 85 | 130 | 2.0 | 4.0 | 0.00 | 0.00 | 0.00 | 79 | 1009.2 |
| 20260901042306 | 85 | 130 | 3.0 | 4.0 | 0.00 | 0.00 | 0.00 | 79 | 1009.3 |
| 20260901042203 | 85 | 138 | 2.0 | 4.0 | 0.00 | 0.00 | 0.00 | 79 | 1009.2 |
| 20260901042104 | 85 | 131 | 1.0 | 4.0 | 0.00 | 0.00 | 0.00 | 79 | 1009.1 |
| 20260901042003 | 85 | 131 | 2.0 | 4.0 | 0.00 | 0.00 | 0.00 | 79 | 1009.2 |
| 20260901041904 | 85 | 130 | 3.0 | 4.0 | 0.00 | 0.00 | 0.00 | 79 | 1009.2 |
| 20260901041802 | 85 | 130 | 2.0 | 4.0 | 0.00 | 0.00 | 0.00 | 79 | 1009.2 |
| 20260901041702 | 85 | 130 | 2.0 | 4.0 | 0.00 | 0.00 | 0.00 | 79 | 1009.2 |
| 20260901041604 | 85 | 127 | 2.0 | 4.0 | 0.00 | 0.00 | 0.00 | 79 | 1009.1 |
| 20260901041504 | 85 | 125 | 2.0 | 4.0 | 0.00 | 0.00 | 0.00 | 79 | 1009.2 |
| 20260901041403 | 85 | 128 | 2.0 | 4.0 | 0.00 | 0.00 | 0.00 | 79 | 1009.2 |
| 20260901041303 | 85 | 133 | 2.0 | 4.0 | 0.00 | 0.00 | 0.00 | 79 | 1009.2 |
| 20260901041204 | 85 | 116 | 2.0 | 4.0 | 0.00 | 0.00 | 0.00 | 79 | 1009.2 |
| 20260901041104 | 85 | 104 | 3.0 | 4.0 | 0.00 | 0.00 | 0.00 | 79 | 1009.2 |
| 20260901041004 | 85 | 103 | 3.0 | 4.0 | 0.00 | 0.00 | 0.00 | 79 | 1009.3 |
| 20260901040903 | 85 | 117 | 3.0 | 4.0 | 0.00 | 0.00 | 0.00 | 79 | 1009.3 |
| 20260901040802 | 85 | 121 | 2.0 | 4.0 | 0.00 | 0.00 | 0.00 | 79 | 1009.3 |
| 20260901040701 | 85 | 125 | 2.0 | 3.0 | 0.00 | 0.00 | 0.00 | 79 | 1009.3 |
| 20260901040604 | 85 | 127 | 2.0 | 3.0 | 0.00 | 0.00 | 0.00 | 79 | 1009.3 |
| 20260901040504 | 85 | 127 | 2.0 | 4.0 | 0.00 | 0.00 | 0.00 | 79 | 1009.3 |
| 20260901040403 | 85 | 128 | 2.0 | 4.0 | 0.00 | 0.00 | 0.00 | 79 | 1009.3 |
| 20260901040303 | 85 | 128 | 1.0 | 4.0 | 0.00 | 0.00 | 0.00 | 79 | 1009.3 |
| 20260901040203 | 85 | 130 | 1.0 | 4.0 | 0.00 | 0.00 | 0.00 | 79 | 1009.3 |
| 20260901040004 | 85 | 130 | 2.0 | 4.0 | 0.00 | 0.00 | 0.00 | 78 | 1009.2 |
| 20260901035903 | 85 | 130 | 2.0 | 4.0 | 0.00 | 0.00 | 0.00 | 78 | 1009.3 |
| 20260901035801 | 85 | 130 | 2.0 | 4.0 | 0.00 | 0.00 | 0.00 | 78 | 1009.3 |
| 20260901035703 | 85 | 133 | 2.0 | 4.0 | 0.00 | 0.00 | 0.00 | 78 | 1009.2 |
| 20260901035602 | 85 | 133 | 1.0 | 4.0 | 0.00 | 0.00 | 0.00 | 78 | 1009.1 |
| 20260901035505 | 85 | 137 | 0.0 | 2.0 | 0.00 | 0.00 | 0.00 | 78 | 1009.2 |
| 20260901035404 | 85 | 137 | 0.0 | 2.0 | 0.00 | 0.00 | 0.00 | 78 | 1009.1 |
| 20260901035305 | 85 | 137 | 1.0 | 2.0 | 0.00 | 0.00 | 0.00 | 78 | 1009.1 |
| 20260901035204 | 85 | 137 | 1.0 | 3.0 | 0.00 | 0.00 | 0.00 | 78 | 1009.1 |
| 20260901035102 | 85 | 135 | 0.0 | 3.0 | 0.00 | 0.00 | 0.00 | 78 | 1009.0 |
| 20260901035003 | 85 | 135 | 0.0 | 3.0 | 0.00 | 0.00 | 0.00 | 78 | 1009.0 |
| 20260901034902 | 85 | 135 | 0.0 | 3.0 | 0.00 | 0.00 | 0.00 | 78 | 1009.1 |
| 20260901034803 | 85 | 135 | 1.0 | 3.0 | 0.00 | 0.00 | 0.00 | 78 | 1009.1 |
| 20260901034703 | 85 | 135 | 1.0 | 3.0 | 0.00 | 0.00 | 0.00 | 78 | 1009.0 |
| 20260901034602 | 85 | 135 | 1.0 | 3.0 | 0.00 | 0.00 | 0.00 | 78 | 1009.1 |
| 20260901034504 | 85 | 135 | 1.0 | 3.0 | 0.00 | 0.00 | 0.00 | 78 | 1009.1 |
| 20260901034403 | 85 | 134 | 1.0 | 3.0 | 0.00 | 0.00 | 0.00 | 78 | 1009.0 |
| 20260901034303 | 85 | 134 | 2.0 | 3.0 | 0.00 | 0.00 | 0.00 | 78 | 1009.0 |
| 20260901034204 | 85 | 134 | 2.0 | 3.0 | 0.00 | 0.00 | 0.00 | 78 | 1009.0 |
| 20260901034104 | 85 | 135 | 2.0 | 3.0 | 0.00 | 0.00 | 0.00 | 77 | 1009.0 |
| 20260901034002 | 85 | 140 | 2.0 | 3.0 | 0.00 | 0.00 | 0.00 | 77 | 1008.9 |
| 20260901033902 | 85 | 142 | 2.0 | 3.0 | 0.00 | 0.00 | 0.00 | 77 | 1008.9 |
| 20260901033802 | 85 | 144 | 2.0 | 3.0 | 0.00 | 0.00 | 0.00 | 77 | 1008.9 |
| 20260901033703 | 85 | 148 | 2.0 | 3.0 | 0.00 | 0.00 | 0.00 | 77 | 1008.8 |
| 20260901033603 | 85 | 140 | 1.0 | 3.0 | 0.00 | 0.00 | 0.00 | 77 | 1008.8 |
| 20260901033505 | 85 | 141 | 1.0 | 3.0 | 0.00 | 0.00 | 0.00 | 77 | 1008.9 |
| 20260901033402 | 85 | 141 | 1.0 | 3.0 | 0.00 | 0.00 | 0.00 | 77 | 1009.0 |
| 20260901033304 | 85 | 141 | 1.0 | 3.0 | 0.00 | 0.00 | 0.00 | 77 | 1008.9 |
| 20260901033202 | 85 | 141 | 1.0 | 3.0 | 0.00 | 0.00 | 0.00 | 77 | 1008.9 |
| 20260901033102 | 85 | 141 | 1.0 | 3.0 | 0.00 | 0.00 | 0.00 | 77 | 1008.9 |
| 20260901033002 | 85 | 141 | 1.0 | 3.0 | 0.00 | 0.00 | 0.00 | 77 | 1008.9 |
| 20260901032902 | 85 | 141 | 0.0 | 3.0 | 0.00 | 0.00 | 0.00 | 77 | 1008.9 |
| 20260901032804 | 85 | 141 | 1.0 | 3.0 | 0.00 | 0.00 | 0.00 | 77 | 1008.8 |
| 20260901032703 | 85 | 140 | 2.0 | 3.0 | 0.00 | 0.00 | 0.00 | 77 | 1008.9 |
| 20260901032604 | 85 | 137 | 2.0 | 3.0 | 0.00 | 0.00 | 0.00 | 77 | 1008.9 |
| 20260901032501 | 85 | 137 | 2.0 | 3.0 | 0.00 | 0.00 | 0.00 | 77 | 1008.8 |
| 20260901032403 | 85 | 137 | 2.0 | 3.0 | 0.00 | 0.00 | 0.00 | 77 | 1008.8 |
| 20260901032306 | 85 | 138 | 2.0 | 3.0 | 0.00 | 0.00 | 0.00 | 77 | 1008.9 |
| 20260901032203 | 85 | 147 | 2.0 | 3.0 | 0.00 | 0.00 | 0.00 | 76 | 1008.8 |
| 20260901032103 | 85 | 147 | 2.0 | 3.0 | 0.00 | 0.00 | 0.00 | 76 | 1008.8 |
| 20260901032004 | 85 | 149 | 1.0 | 3.0 | 0.00 | 0.00 | 0.00 | 76 | 1008.8 |
| 20260901031903 | 85 | 151 | 0.0 | 2.0 | 0.00 | 0.00 | 0.00 | 76 | 1008.8 |
| 20260901031803 | 85 | 151 | 0.0 | 2.0 | 0.00 | 0.00 | 0.00 | 76 | 1008.8 |
| 20260901031703 | 85 | 151 | 1.0 | 2.0 | 0.00 | 0.00 | 0.00 | 76 | 1008.8 |
| 20260901031604 | 85 | 151 | 1.0 | 3.0 | 0.00 | 0.00 | 0.00 | 76 | 1008.8 |
| 20260901031502 | 85 | 149 | 1.0 | 3.0 | 0.00 | 0.00 | 0.00 | 76 | 1008.7 |
| 20260901031404 | 85 | 149 | 1.0 | 3.0 | 0.00 | 0.00 | 0.00 | 76 | 1008.7 |
| 20260901031303 | 85 | 149 | 1.0 | 3.0 | 0.00 | 0.00 | 0.00 | 76 | 1008.7 |
| 20260901031203 | 85 | 148 | 1.0 | 3.0 | 0.00 | 0.00 | 0.00 | 76 | 1008.7 |
| 20260901031103 | 85 | 148 | 1.0 | 4.0 | 0.00 | 0.00 | 0.00 | 76 | 1008.6 |
| 20260901031004 | 85 | 148 | 1.0 | 4.0 | 0.00 | 0.00 | 0.00 | 76 | 1008.7 |
| 20260901030903 | 85 | 148 | 2.0 | 4.0 | 0.00 | 0.00 | 0.00 | 76 | 1008.6 |
| 20260901030803 | 86 | 147 | 2.0 | 4.0 | 0.00 | 0.00 | 0.00 | 75 | 1008.7 |
| 20260901030702 | 86 | 154 | 2.0 | 4.0 | 0.00 | 0.00 | 0.00 | 75 | 1008.6 |
| 20260901030603 | 86 | 158 | 2.0 | 4.0 | 0.00 | 0.00 | 0.00 | 75 | 1008.7 |
| 20260901030505 | 86 | 159 | 2.0 | 4.0 | 0.00 | 0.00 | 0.00 | 75 | 1008.7 |
| 20260901030404 | 86 | 155 | 2.0 | 4.0 | 0.00 | 0.00 | 0.00 | 75 | 1008.6 |
| 20260901030302 | 86 | 159 | 2.0 | 4.0 | 0.00 | 0.00 | 0.00 | 75 | 1008.6 |
| 20260901030202 | 86 | 135 | 1.0 | 4.0 | 0.00 | 0.00 | 0.00 | 75 | 1008.7 |
| 20260901030104 | 86 | 152 | 0.0 | 3.0 | 0.00 | 0.00 | 0.00 | 75 | 1008.6 |
| 20260901030004 | 86 | 151 | 0.0 | 3.0 | 0.00 | 0.00 | 0.00 | 75 | 1008.5 |
| 20260901025903 | 86 | 151 | 0.0 | 3.0 | 0.00 | 0.00 | 0.00 | 74 | 1008.6 |
| 20260901025803 | 86 | 151 | 0.0 | 3.0 | 0.00 | 0.00 | 0.00 | 74 | 1008.6 |
| 20260901025703 | 86 | 148 | 0.0 | 3.0 | 0.00 | 0.00 | 0.00 | 74 | 1008.6 |
| 20260901025602 | 86 | 147 | 0.0 | 3.0 | 0.00 | 0.00 | 0.00 | 74 | 1008.6 |
| 20260901025503 | 86 | 147 | 1.0 | 3.0 | 0.00 | 0.00 | 0.00 | 74 | 1008.6 |
| 20260901025404 | 86 | 147 | 1.0 | 3.0 | 0.00 | 0.00 | 0.00 | 74 | 1008.5 |
| 20260901025305 | 86 | 149 | 1.0 | 2.0 | 0.00 | 0.00 | 0.00 | 74 | 1008.6 |
| 20260901025204 | 86 | 149 | 1.0 | 2.0 | 0.00 | 0.00 | 0.00 | 74 | 1008.6 |
| 20260901025104 | 86 | 148 | 1.0 | 2.0 | 0.00 | 0.00 | 0.00 | 74 | 1008.5 |
| 20260901025003 | 86 | 147 | 0.0 | 2.0 | 0.00 | 0.00 | 0.00 | 74 | 1008.6 |
| 20260901024902 | 86 | 147 | 0.0 | 2.0 | 0.00 | 0.00 | 0.00 | 74 | 1008.6 |
| 20260901024802 | 86 | 147 | 0.0 | 2.0 | 0.00 | 0.00 | 0.00 | 74 | 1008.5 |
| 20260901024702 | 86 | 147 | 1.0 | 2.0 | 0.00 | 0.00 | 0.00 | 74 | 1008.5 |
| 20260901024602 | 86 | 145 | 1.0 | 2.0 | 0.00 | 0.00 | 0.00 | 74 | 1008.5 |
| 20260901024504 | 86 | 145 | 1.0 | 2.0 | 0.00 | 0.00 | 0.00 | 73 | 1008.5 |
| 20260901024401 | 86 | 145 | 0.0 | 2.0 | 0.00 | 0.00 | 0.00 | 73 | 1008.4 |
| 20260901024303 | 86 | 145 | 0.0 | 2.0 | 0.00 | 0.00 | 0.00 | 73 | 1008.4 |
| 20260901024203 | 86 | 145 | 1.0 | 2.0 | 0.00 | 0.00 | 0.00 | 73 | 1008.5 |
| 20260901024102 | 86 | 145 | 1.0 | 2.0 | 0.00 | 0.00 | 0.00 | 73 | 1008.4 |
| 20260901024001 | 86 | 145 | 1.0 | 2.0 | 0.00 | 0.00 | 0.00 | 73 | 1008.4 |
| 20260901023904 | 86 | 145 | 0.0 | 2.0 | 0.00 | 0.00 | 0.00 | 73 | 1008.4 |
| 20260901023803 | 86 | 145 | 0.0 | 2.0 | 0.00 | 0.00 | 0.00 | 73 | 1008.4 |
| 20260901023705 | 86 | 145 | 0.0 | 2.0 | 0.00 | 0.00 | 0.00 | 73 | 1008.3 |
| 20260901023602 | 86 | 145 | 0.0 | 2.0 | 0.00 | 0.00 | 0.00 | 73 | 1008.3 |
| 20260901023504 | 86 | 145 | 0.0 | 2.0 | 0.00 | 0.00 | 0.00 | 73 | 1008.3 |
| 20260901023404 | 86 | 148 | 1.0 | 2.0 | 0.00 | 0.00 | 0.00 | 73 | 1008.3 |
| 20260901023302 | 86 | 148 | 1.0 | 2.0 | 0.00 | 0.00 | 0.00 | 73 | 1008.3 |
| 20260901023202 | 86 | 148 | 1.0 | 2.0 | 0.00 | 0.00 | 0.00 | 73 | 1008.3 |
| 20260901023103 | 86 | 148 | 1.0 | 2.0 | 0.00 | 0.00 | 0.00 | 73 | 1008.2 |
| 20260901023003 | 86 | 149 | 1.0 | 2.0 | 0.00 | 0.00 | 0.00 | 73 | 1008.3 |
| 20260901022902 | 86 | 149 | 1.0 | 2.0 | 0.00 | 0.00 | 0.00 | 73 | 1008.3 |
| 20260901022803 | 86 | 148 | 0.0 | 2.0 | 0.00 | 0.00 | 0.00 | 73 | 1008.2 |
| 20260901022702 | 86 | 148 | 0.0 | 2.0 | 0.00 | 0.00 | 0.00 | 73 | 1008.2 |
| 20260901022603 | 86 | 148 | 1.0 | 3.0 | 0.00 | 0.00 | 0.00 | 73 | 1008.2 |
| 20260901022504 | 86 | 148 | 0.0 | 3.0 | 0.00 | 0.00 | 0.00 | 73 | 1008.1 |
| 20260901022402 | 86 | 148 | 0.0 | 3.0 | 0.00 | 0.00 | 0.00 | 73 | 1008.2 |
| 20260901022306 | 86 | 148 | 0.0 | 3.0 | 0.00 | 0.00 | 0.00 | 72 | 1008.2 |
| 20260901022205 | 86 | 149 | 1.0 | 3.0 | 0.00 | 0.00 | 0.00 | 72 | 1008.2 |
| 20260901022103 | 86 | 148 | 1.0 | 3.0 | 0.00 | 0.00 | 0.00 | 72 | 1008.1 |
| 20260901022004 | 86 | 148 | 1.0 | 3.0 | 0.00 | 0.00 | 0.00 | 72 | 1008.2 |
| 20260901021903 | 87 | 148 | 1.0 | 3.0 | 0.00 | 0.00 | 0.00 | 72 | 1008.0 |
| 20260901021803 | 87 | 147 | 1.0 | 3.0 | 0.00 | 0.00 | 0.00 | 72 | 1008.0 |
| 20260901021703 | 87 | 147 | 1.0 | 3.0 | 0.00 | 0.00 | 0.00 | 72 | 1008.0 |
| 20260901021604 | 87 | 149 | 1.0 | 3.0 | 0.00 | 0.00 | 0.00 | 72 | 1008.0 |
| 20260901021502 | 87 | 148 | 1.0 | 3.0 | 0.00 | 0.00 | 0.00 | 72 | 1008.0 |
| 20260901021402 | 87 | 148 | 1.0 | 3.0 | 0.00 | 0.00 | 0.00 | 72 | 1007.9 |
| 20260901021303 | 87 | 148 | 1.0 | 5.0 | 0.00 | 0.00 | 0.00 | 72 | 1007.9 |
| 20260901021202 | 87 | 152 | 0.0 | 5.0 | 0.00 | 0.00 | 0.00 | 72 | 1007.9 |
| 20260901021104 | 87 | 152 | 0.0 | 5.0 | 0.00 | 0.00 | 0.00 | 72 | 1007.9 |
| 20260901021003 | 87 | 154 | 0.0 | 5.0 | 0.00 | 0.00 | 0.00 | 72 | 1007.8 |
| 20260901020903 | 87 | 154 | 1.0 | 5.0 | 0.00 | 0.00 | 0.00 | 72 | 1007.9 |
| 20260901020803 | 87 | 154 | 2.0 | 5.0 | 0.00 | 0.00 | 0.00 | 71 | 1007.9 |
| 20260901020704 | 87 | 155 | 2.0 | 5.0 | 0.00 | 0.00 | 0.00 | 71 | 1007.9 |
| 20260901020603 | 87 | 134 | 2.0 | 5.0 | 0.00 | 0.00 | 0.00 | 71 | 1007.9 |
| 20260901020503 | 87 | 134 | 2.0 | 5.0 | 0.00 | 0.00 | 0.00 | 71 | 1007.9 |
| 20260901020404 | 87 | 151 | 3.0 | 5.0 | 0.00 | 0.00 | 0.00 | 71 | 1007.9 |
| 20260901020255 | 87 | 134 | 3.0 | 5.0 | 0.00 | 0.00 | 0.00 | 71 | 1007.9 |
| 20260901020152 | 87 | 124 | 2.0 | 5.0 | 0.00 | 0.00 | 0.00 | 71 | 1007.9 |
| 20260901020051 | 87 | 171 | 2.0 | 5.0 | 0.00 | 0.00 | 0.00 | 71 | 1007.9 |
| 20260901015949 | 87 | 157 | 2.0 | 5.0 | 0.00 | 0.00 | 0.00 | 71 | 1007.9 |
| 20260901015845 | 87 | 159 | 1.0 | 5.0 | 0.00 | 0.00 | 0.00 | 70 | 1007.9 |
| 20260901015732 | 87 | 165 | 1.0 | 5.0 | 0.00 | 0.00 | 0.00 | 70 | 1007.9 |
| 20260901015633 | 88 | 159 | 1.0 | 5.0 | 0.00 | 0.00 | 0.00 | 70 | 1007.9 |
| 20260901015531 | 88 | 145 | 2.0 | 5.0 | 0.00 | 0.00 | 0.00 | 70 | 1007.9 |
| 20260901015434 | 88 | 145 | 3.0 | 5.0 | 0.00 | 0.00 | 0.00 | 70 | 1007.9 |
| 20260901015333 | 88 | 154 | 2.0 | 5.0 | 0.00 | 0.00 | 0.00 | 70 | 1007.8 |
| 20260901015232 | 88 | 142 | 3.0 | 5.0 | 0.00 | 0.00 | 0.00 | 70 | 1007.9 |
| 20260901015132 | 88 | 162 | 2.0 | 5.0 | 0.00 | 0.00 | 0.00 | 69 | 1007.9 |
| 20260901015032 | 88 | 148 | 2.0 | 4.0 | 0.00 | 0.00 | 0.00 | 69 | 1007.8 |
| 20260901014933 | 88 | 147 | 1.0 | 4.0 | 0.00 | 0.00 | 0.00 | 69 | 1007.8 |
| 20260901014831 | 88 | 144 | 1.0 | 4.0 | 0.00 | 0.00 | 0.00 | 68 | 1007.9 |
| 20260901014732 | 88 | 142 | 1.0 | 4.0 | 0.00 | 0.00 | 0.00 | 68 | 1007.8 |
| 20260901014632 | 88 | 142 | 2.0 | 6.0 | 0.00 | 0.00 | 0.00 | 68 | 1007.8 |
| 20260901014531 | 88 | 144 | 1.0 | 6.0 | 0.00 | 0.00 | 0.00 | 68 | 1007.8 |
| 20260901014432 | 88 | 145 | 2.0 | 6.0 | 0.00 | 0.00 | 0.00 | 68 | 1007.8 |
| 20260901014332 | 88 | 148 | 2.0 | 6.0 | 0.00 | 0.00 | 0.00 | 68 | 1007.8 |
| 20260901014231 | 88 | 125 | 2.0 | 6.0 | 0.00 | 0.00 | 0.00 | 68 | 1007.8 |
| 20260901014133 | 88 | 121 | 2.0 | 6.0 | 0.00 | 0.00 | 0.00 | 68 | 1007.8 |
| 20260901014032 | 88 | 113 | 2.0 | 6.0 | 0.00 | 0.00 | 0.00 | 67 | 1007.8 |
| 20260901013932 | 89 | 113 | 2.0 | 6.0 | 0.00 | 0.00 | 0.00 | 67 | 1007.7 |
| 20260901013831 | 89 | 110 | 4.0 | 6.0 | 0.00 | 0.00 | 0.00 | 67 | 1007.7 |
| 20260901013733 | 89 | 111 | 3.0 | 6.0 | 0.00 | 0.00 | 0.00 | 67 | 1007.7 |
| 20260901013632 | 89 | 124 | 2.0 | 6.0 | 0.00 | 0.00 | 0.00 | 67 | 1007.8 |
| 20260901013530 | 89 | 117 | 2.0 | 6.0 | 0.00 | 0.00 | 0.00 | 67 | 1007.8 |
| 20260901013432 | 89 | 117 | 3.0 | 6.0 | 0.00 | 0.00 | 0.00 | 67 | 1007.7 |
| 20260901013333 | 89 | 125 | 3.0 | 6.0 | 0.00 | 0.00 | 0.00 | 67 | 1007.7 |
| 20260901013232 | 89 | 134 | 2.0 | 6.0 | 0.00 | 0.00 | 0.00 | 67 | 1007.7 |
| 20260901013132 | 89 | 123 | 2.0 | 6.0 | 0.00 | 0.00 | 0.00 | 67 | 1007.7 |
| 20260901013031 | 89 | 107 | 3.0 | 6.0 | 0.00 | 0.00 | 0.00 | 67 | 1007.8 |
| 20260901012933 | 89 | 113 | 3.0 | 6.0 | 0.00 | 0.00 | 0.00 | 67 | 1007.8 |
| 20260901012831 | 89 | 124 | 4.0 | 6.0 | 0.00 | 0.00 | 0.00 | 67 | 1007.7 |
| 20260901012731 | 89 | 137 | 4.0 | 6.0 | 0.00 | 0.00 | 0.00 | 67 | 1007.8 |
| 20260901012631 | 89 | 117 | 3.0 | 6.0 | 0.00 | 0.00 | 0.00 | 67 | 1007.8 |
| 20260901012531 | 89 | 121 | 4.0 | 6.0 | 0.00 | 0.00 | 0.00 | 67 | 1007.8 |
| 20260901012433 | 89 | 104 | 3.0 | 6.0 | 0.00 | 0.00 | 0.00 | 67 | 1007.9 |
| 20260901012333 | 89 | 110 | 3.0 | 6.0 | 0.00 | 0.00 | 0.00 | 67 | 1007.9 |
| 20260901012231 | 89 | 109 | 4.0 | 6.0 | 0.00 | 0.00 | 0.00 | 67 | 1007.8 |
| 20260901012130 | 89 | 111 | 4.0 | 6.0 | 0.00 | 0.00 | 0.00 | 67 | 1007.8 |
| 20260901012031 | 89 | 107 | 4.0 | 5.0 | 0.00 | 0.00 | 0.00 | 67 | 1007.8 |
| 20260901011934 | 89 | 104 | 3.0 | 5.0 | 0.00 | 0.00 | 0.00 | 67 | 1007.9 |
| 20260901011832 | 89 | 118 | 3.0 | 5.0 | 0.00 | 0.00 | 0.00 | 67 | 1007.9 |
| 20260901011731 | 89 | 120 | 4.0 | 5.0 | 0.00 | 0.00 | 0.00 | 67 | 1007.8 |
| 20260901011631 | 89 | 116 | 3.0 | 5.0 | 0.00 | 0.00 | 0.00 | 67 | 1007.8 |
| 20260901011532 | 89 | 133 | 2.0 | 5.0 | 0.00 | 0.00 | 0.00 | 67 | 1007.7 |
| 20260901011431 | 89 | 133 | 2.0 | 5.0 | 0.00 | 0.00 | 0.00 | 67 | 1007.7 |
| 20260901011333 | 89 | 133 | 2.0 | 5.0 | 0.00 | 0.00 | 0.00 | 67 | 1007.7 |
| 20260901011232 | 89 | 134 | 2.0 | 5.0 | 0.00 | 0.00 | 0.00 | 66 | 1007.7 |
| 20260901011131 | 89 | 138 | 2.0 | 5.0 | 0.00 | 0.00 | 0.00 | 66 | 1007.8 |
| 20260901011022 | 89 | 109 | 3.0 | 5.0 | 0.00 | 0.00 | 0.00 | 66 | 1007.8 |
| 20260901010916 | 89 | 107 | 3.0 | 6.0 | 0.00 | 0.00 | 0.00 | 66 | 1007.7 |
| 20260901010814 | 89 | 123 | 2.0 | 6.0 | 0.00 | 0.00 | 0.00 | 66 | 1007.8 |
| 20260901010713 | 89 | 120 | 2.0 | 6.0 | 0.00 | 0.00 | 0.00 | 66 | 1007.8 |
| 20260901010611 | 89 | 121 | 2.0 | 6.0 | 0.00 | 0.00 | 0.00 | 66 | 1007.8 |
| 20260901010508 | 89 | 130 | 2.0 | 7.0 | 0.00 | 0.00 | 0.00 | 66 | 1007.7 |
| 20260901010407 | 89 | 127 | 2.0 | 7.0 | 0.00 | 0.00 | 0.00 | 66 | 1007.7 |
| 20260901010305 | 89 | 140 | 2.0 | 7.0 | 0.00 | 0.00 | 0.00 | 66 | 1007.7 |
| 20260901010205 | 89 | 131 | 3.0 | 7.0 | 0.00 | 0.00 | 0.00 | 66 | 1007.7 |
| 20260901010106 | 89 | 133 | 5.0 | 7.0 | 0.00 | 0.00 | 0.00 | 66 | 1007.7 |
| 20260901010007 | 89 | 104 | 5.0 | 7.0 | 0.00 | 0.00 | 0.00 | 66 | 1007.7 |
| 20260901005907 | 89 | 111 | 4.0 | 7.0 | 0.00 | 0.00 | 0.00 | 66 | 1007.7 |
| 20260901005806 | 89 | 107 | 4.0 | 7.0 | 0.00 | 0.00 | 0.00 | 65 | 1007.7 |
| 20260901005705 | 89 | 106 | 5.0 | 7.0 | 0.00 | 0.00 | 0.00 | 65 | 1007.7 |
| 20260901005605 | 90 | 106 | 4.0 | 7.0 | 0.00 | 0.00 | 0.00 | 65 | 1007.7 |
| 20260901005505 | 90 | 106 | 3.0 | 5.0 | 0.00 | 0.00 | 0.00 | 65 | 1007.6 |
| 20260901005405 | 90 | 103 | 3.0 | 5.0 | 0.00 | 0.00 | 0.00 | 65 | 1007.7 |
| 20260901005307 | 90 | 127 | 4.0 | 5.0 | 0.00 | 0.00 | 0.00 | 65 | 1007.7 |
| 20260901005205 | 90 | 109 | 3.0 | 6.0 | 0.00 | 0.00 | 0.00 | 65 | 1007.7 |
| 20260901005105 | 90 | 110 | 2.0 | 6.0 | 0.00 | 0.00 | 0.00 | 65 | 1007.7 |
| 20260901005006 | 90 | 109 | 2.0 | 7.0 | 0.00 | 0.00 | 0.00 | 65 | 1007.7 |
| 20260901004905 | 90 | 110 | 3.0 | 7.0 | 0.00 | 0.00 | 0.00 | 65 | 1007.7 |
| 20260901004806 | 90 | 110 | 4.0 | 7.0 | 0.00 | 0.00 | 0.00 | 65 | 1007.8 |
| 20260901004702 | 90 | 102 | 3.0 | 7.0 | 0.00 | 0.00 | 0.00 | 65 | 1007.7 |
| 20260901004602 | 90 | 104 | 3.0 | 7.0 | 0.00 | 0.00 | 0.00 | 65 | 1007.8 |
| 20260901004502 | 90 | 106 | 3.0 | 7.0 | 0.00 | 0.00 | 0.00 | 65 | 1007.7 |
| 20260901004403 | 90 | 110 | 4.0 | 7.0 | 0.00 | 0.00 | 0.00 | 65 | 1007.8 |
| 20260901004304 | 90 | 109 | 5.0 | 7.0 | 0.00 | 0.00 | 0.00 | 65 | 1007.7 |
| 20260901004204 | 90 | 103 | 5.0 | 7.0 | 0.00 | 0.00 | 0.00 | 65 | 1007.8 |
| 20260901004102 | 90 | 102 | 4.0 | 7.0 | 0.00 | 0.00 | 0.00 | 65 | 1007.8 |
| 20260901004003 | 90 | 94 | 3.0 | 6.0 | 0.00 | 0.00 | 0.00 | 65 | 1007.8 |
| 20260901003902 | 90 | 102 | 3.0 | 6.0 | 0.00 | 0.00 | 0.00 | 64 | 1007.7 |
| 20260901003802 | 90 | 111 | 4.0 | 6.0 | 0.00 | 0.00 | 0.00 | 64 | 1007.8 |
| 20260901003702 | 90 | 102 | 5.0 | 6.0 | 0.00 | 0.00 | 0.00 | 64 | 1007.8 |
| 20260901003602 | 90 | 110 | 5.0 | 6.0 | 0.00 | 0.00 | 0.00 | 64 | 1007.8 |
| 20260901003504 | 90 | 104 | 4.0 | 6.0 | 0.00 | 0.00 | 0.00 | 65 | 1007.8 |
| 20260901003403 | 90 | 92 | 3.0 | 5.0 | 0.00 | 0.00 | 0.00 | 65 | 1007.8 |
| 20260901003302 | 90 | 103 | 3.0 | 5.0 | 0.00 | 0.00 | 0.00 | 64 | 1007.8 |
| 20260901003203 | 90 | 103 | 2.0 | 5.0 | 0.00 | 0.00 | 0.00 | 64 | 1007.8 |
| 20260901003103 | 90 | 124 | 3.0 | 5.0 | 0.00 | 0.00 | 0.00 | 64 | 1007.9 |
| 20260901003005 | 90 | 121 | 3.0 | 5.0 | 0.00 | 0.00 | 0.00 | 64 | 1007.8 |
| 20260901002903 | 90 | 135 | 3.0 | 5.0 | 0.00 | 0.00 | 0.00 | 64 | 1007.8 |
| 20260901002803 | 90 | 117 | 3.0 | 5.0 | 0.00 | 0.00 | 0.00 | 64 | 1007.9 |
| 20260901002702 | 90 | 123 | 3.0 | 5.0 | 0.00 | 0.00 | 0.00 | 64 | 1007.8 |
| 20260901002603 | 90 | 125 | 3.0 | 5.0 | 0.00 | 0.00 | 0.00 | 64 | 1007.8 |
| 20260901002502 | 90 | 127 | 3.0 | 5.0 | 0.00 | 0.00 | 0.00 | 64 | 1007.8 |
| 20260901002402 | 90 | 107 | 3.0 | 5.0 | 0.00 | 0.00 | 0.00 | 64 | 1007.7 |
| 20260901002305 | 90 | 104 | 3.0 | 5.0 | 0.00 | 0.00 | 0.00 | 64 | 1007.8 |
| 20260901002204 | 90 | 120 | 3.0 | 5.0 | 0.00 | 0.00 | 0.00 | 64 | 1007.8 |
| 20260901002102 | 90 | 145 | 3.0 | 5.0 | 0.00 | 0.00 | 0.00 | 64 | 1007.8 |
| 20260901002004 | 90 | 138 | 3.0 | 6.0 | 0.00 | 0.00 | 0.00 | 64 | 1007.8 |
| 20260901001903 | 91 | 130 | 2.0 | 6.0 | 0.00 | 0.00 | 0.00 | 64 | 1007.8 |
| 20260901001803 | 91 | 120 | 2.0 | 7.0 | 0.00 | 0.00 | 0.00 | 64 | 1007.7 |
| 20260901001704 | 91 | 121 | 2.0 | 7.0 | 0.00 | 0.00 | 0.00 | 64 | 1007.8 |
| 20260901001604 | 91 | 116 | 3.0 | 7.0 | 0.00 | 0.00 | 0.00 | 64 | 1007.8 |
| 20260901001504 | 91 | 104 | 4.0 | 7.0 | 0.00 | 0.00 | 0.00 | 63 | 1007.7 |
| 20260901001403 | 91 | 103 | 4.0 | 7.0 | 0.00 | 0.00 | 0.00 | 63 | 1007.7 |
| 20260901001302 | 91 | 99 | 4.0 | 10.0 | 0.00 | 0.00 | 0.00 | 63 | 1007.8 |
| 20260901001203 | 91 | 96 | 4.0 | 10.0 | 0.00 | 0.00 | 0.00 | 63 | 1007.7 |
| 20260901001103 | 91 | 96 | 4.0 | 10.0 | 0.00 | 0.00 | 0.00 | 63 | 1007.8 |
| 20260901001005 | 91 | 121 | 4.0 | 10.0 | 0.00 | 0.00 | 0.00 | 63 | 1007.8 |
| 20260901000902 | 91 | 104 | 5.0 | 10.0 | 0.00 | 0.00 | 0.00 | 62 | 1007.8 |
| 20260901000802 | 91 | 97 | 5.0 | 10.0 | 0.00 | 0.00 | 0.00 | 62 | 1007.7 |
| 20260901000702 | 91 | 87 | 5.0 | 10.0 | 0.00 | 0.00 | 0.00 | 62 | 1007.8 |
| 20260901000604 | 91 | 96 | 5.0 | 10.0 | 0.00 | 0.00 | 0.00 | 62 | 1007.8 |
| 20260901000503 | 91 | 109 | 6.0 | 10.0 | 0.00 | 0.00 | 0.00 | 62 | 1007.8 |
| 20260901000405 | 91 | 111 | 6.0 | 10.0 | 0.00 | 0.00 | 0.00 | 62 | 1007.9 |
| 20260901000304 | 91 | 109 | 4.0 | 7.0 | 0.00 | 0.00 | 0.00 | 62 | 1007.8 |
| 20260901000204 | 91 | 106 | 4.0 | 7.0 | 0.00 | 0.00 | 0.00 | 62 | 1007.9 |
| 20260901000103 | 91 | 125 | 4.0 | 10.0 | 0.00 | 0.00 | 0.00 | 62 | 1007.8 |
| 20260901000002 | 91 | 124 | 2.0 | 10.0 | 0.00 | 0.00 | 0.00 | 62 | 1007.9 |
| 20260831235902 | 91 | 121 | 3.0 | 10.0 | 0.00 | 0.00 | 0.00 | 62 | 1007.8 |
| 20260831235804 | 91 | 110 | 4.0 | 10.0 | 0.00 | 0.00 | 0.00 | 62 | 1007.9 |
| 20260831235703 | 91 | 134 | 4.0 | 10.0 | 0.00 | 0.00 | 0.00 | 62 | 1007.8 |
| 20260831235604 | 91 | 128 | 5.0 | 10.0 | 0.00 | 0.00 | 0.00 | 62 | 1007.8 |
| 20260831235502 | 91 | 80 | 5.0 | 10.0 | 0.00 | 0.00 | 0.00 | 62 | 1007.8 |
| 20260831235401 | 91 | 85 | 5.0 | 10.0 | 0.00 | 0.00 | 0.00 | 62 | 1007.8 |
| 20260831235306 | 91 | 106 | 6.0 | 10.0 | 0.00 | 0.00 | 0.00 | 62 | 1007.9 |
| 20260831235202 | 91 | 89 | 6.0 | 10.0 | 0.00 | 0.00 | 0.00 | 62 | 1007.9 |
| 20260831235103 | 91 | 97 | 7.0 | 10.0 | 0.00 | 0.00 | 0.00 | 62 | 1007.9 |
| 20260831235003 | 91 | 106 | 6.0 | 10.0 | 0.00 | 0.00 | 0.00 | 62 | 1007.9 |
| 20260831234904 | 91 | 111 | 5.0 | 9.0 | 0.00 | 0.00 | 0.00 | 62 | 1007.9 |
| 20260831234803 | 91 | 102 | 5.0 | 9.0 | 0.00 | 0.00 | 0.00 | 62 | 1007.9 |
| 20260831234704 | 91 | 114 | 5.0 | 9.0 | 0.00 | 0.00 | 0.00 | 62 | 1007.9 |
| 20260831234604 | 91 | 109 | 4.0 | 9.0 | 0.00 | 0.00 | 0.00 | 61 | 1007.9 |
| 20260831234504 | 91 | 94 | 5.0 | 9.0 | 0.00 | 0.00 | 0.00 | 61 | 1007.9 |
| 20260831234402 | 91 | 113 | 5.0 | 10.0 | 0.00 | 0.00 | 0.00 | 61 | 1007.9 |
| 20260831234302 | 91 | 92 | 6.0 | 10.0 | 0.00 | 0.00 | 0.00 | 61 | 1007.9 |
| 20260831234204 | 91 | 94 | 6.0 | 10.0 | 0.00 | 0.00 | 0.00 | 61 | 1007.9 |
| 20260831234104 | 91 | 87 | 6.0 | 10.0 | 0.00 | 0.00 | 0.00 | 61 | 1007.9 |
| 20260831234003 | 91 | 78 | 6.0 | 10.0 | 0.00 | 0.00 | 0.00 | 61 | 1007.9 |
| 20260831233903 | 91 | 106 | 6.0 | 10.0 | 0.00 | 0.00 | 0.00 | 61 | 1007.8 |
| 20260831233803 | 91 | 97 | 6.0 | 10.0 | 0.00 | 0.00 | 0.00 | 61 | 1007.9 |
| 20260831233703 | 91 | 106 | 6.0 | 10.0 | 0.00 | 0.00 | 0.00 | 60 | 1007.9 |
| 20260831233603 | 91 | 114 | 6.0 | 10.0 | 0.00 | 0.00 | 0.00 | 60 | 1008.0 |
| 20260831233503 | 91 | 103 | 6.0 | 10.0 | 0.00 | 0.00 | 0.00 | 60 | 1007.9 |
| 20260831233403 | 91 | 97 | 6.0 | 10.0 | 0.00 | 0.00 | 0.00 | 59 | 1007.9 |
| 20260831233302 | 91 | 106 | 7.0 | 10.0 | 0.00 | 0.00 | 0.00 | 59 | 1007.9 |
| 20260831233204 | 91 | 93 | 7.0 | 10.0 | 0.00 | 0.00 | 0.00 | 59 | 1007.8 |
| 20260831233102 | 91 | 86 | 6.0 | 10.0 | 0.00 | 0.00 | 0.00 | 59 | 1007.9 |
| 20260831233004 | 91 | 94 | 6.0 | 10.0 | 0.00 | 0.00 | 0.00 | 59 | 1007.9 |
| 20260831232906 | 91 | 116 | 6.0 | 10.0 | 0.00 | 0.00 | 0.00 | 59 | 1007.8 |
| 20260831232805 | 91 | 110 | 6.0 | 10.0 | 0.00 | 0.00 | 0.00 | 59 | 1007.9 |
| 20260831232705 | 91 | 120 | 6.0 | 10.0 | 0.00 | 0.00 | 0.00 | 59 | 1007.8 |
| 20260831232604 | 91 | 85 | 6.0 | 10.0 | 0.00 | 0.00 | 0.00 | 58 | 1007.9 |
| 20260831232503 | 91 | 102 | 5.0 | 10.0 | 0.00 | 0.00 | 0.00 | 58 | 1007.9 |
| 20260831232356 | 91 | 93 | 6.0 | 10.0 | 0.00 | 0.00 | 0.00 | 58 | 1007.8 |
| 20260831232252 | 91 | 97 | 6.0 | 10.0 | 0.00 | 0.00 | 0.00 | 58 | 1007.8 |
| 20260831232152 | 91 | 82 | 6.0 | 10.0 | 0.00 | 0.00 | 0.00 | 57 | 1007.8 |
| 20260831232046 | 91 | 106 | 7.0 | 10.0 | 0.00 | 0.00 | 0.00 | 57 | 1007.8 |
| 20260831231945 | 91 | 100 | 6.0 | 10.0 | 0.00 | 0.00 | 0.00 | 57 | 1007.7 |
| 20260831231841 | 91 | 109 | 5.0 | 10.0 | 0.00 | 0.00 | 0.00 | 57 | 1007.7 |
| 20260831231738 | 91 | 111 | 5.0 | 10.0 | 0.00 | 0.00 | 0.00 | 57 | 1007.7 |
| 20260831231635 | 91 | 96 | 5.0 | 10.0 | 0.00 | 0.00 | 0.00 | 57 | 1007.7 |
| 20260831231535 | 91 | 100 | 6.0 | 10.0 | 0.00 | 0.00 | 0.00 | 57 | 1007.7 |
| 20260831231432 | 91 | 109 | 5.0 | 10.0 | 0.00 | 0.00 | 0.00 | 56 | 1007.7 |
| 20260831231332 | 91 | 55 | 5.0 | 9.0 | 0.00 | 0.00 | 0.00 | 56 | 1007.7 |
| 20260831231232 | 91 | 100 | 5.0 | 9.0 | 0.00 | 0.00 | 0.00 | 56 | 1007.8 |
| 20260831231131 | 91 | 93 | 6.0 | 9.0 | 0.00 | 0.00 | 0.00 | 56 | 1007.7 |
| 20260831231032 | 92 | 73 | 6.0 | 9.0 | 0.00 | 0.00 | 0.00 | 56 | 1007.7 |
| 20260831230930 | 92 | 85 | 4.0 | 9.0 | 0.00 | 0.00 | 0.00 | 56 | 1007.7 |
| 20260831230827 | 92 | 92 | 4.0 | 9.0 | 0.00 | 0.00 | 0.00 | 55 | 1007.7 |
| 20260831230724 | 92 | 106 | 5.0 | 9.0 | 0.00 | 0.00 | 0.00 | 55 | 1007.6 |
| 20260831230623 | 92 | 93 | 5.0 | 9.0 | 0.00 | 0.00 | 0.00 | 55 | 1007.7 |
| 20260831230520 | 92 | 86 | 4.0 | 9.0 | 0.00 | 0.00 | 0.00 | 55 | 1007.6 |
| 20260831230415 | 92 | 107 | 4.0 | 9.0 | 0.00 | 0.00 | 0.00 | 55 | 1007.6 |
| 20260831230311 | 92 | 86 | 5.0 | 9.0 | 0.00 | 0.00 | 0.00 | 55 | 1007.6 |
| 20260831230210 | 92 | 100 | 6.0 | 9.0 | 0.00 | 0.00 | 0.00 | 55 | 1007.6 |
| 20260831230104 | 92 | 102 | 5.0 | 9.0 | 0.00 | 0.00 | 0.00 | 55 | 1007.6 |
| 20260831230003 | 92 | 99 | 5.0 | 9.0 | 0.00 | 0.00 | 0.00 | 55 | 1007.6 |
| 20260831225903 | 92 | 93 | 5.0 | 9.0 | 0.00 | 0.00 | 0.00 | 55 | 1007.7 |
| 20260831225803 | 92 | 82 | 4.0 | 9.0 | 0.00 | 0.00 | 0.00 | 55 | 1007.7 |
| 20260831225701 | 92 | 87 | 4.0 | 9.0 | 0.00 | 0.00 | 0.00 | 55 | 1007.7 |
| 20260831225603 | 92 | 97 | 4.0 | 9.0 | 0.00 | 0.00 | 0.00 | 55 | 1007.7 |
| 20260831225503 | 92 | 96 | 2.0 | 7.0 | 0.00 | 0.00 | 0.00 | 55 | 1007.7 |
| 20260831225402 | 92 | 96 | 3.0 | 7.0 | 0.00 | 0.00 | 0.00 | 55 | 1007.7 |
| 20260831225305 | 92 | 92 | 4.0 | 7.0 | 0.00 | 0.00 | 0.00 | 55 | 1007.6 |
| 20260831225203 | 92 | 90 | 5.0 | 7.0 | 0.00 | 0.00 | 0.00 | 55 | 1007.6 |
| 20260831225104 | 92 | 97 | 5.0 | 7.0 | 0.00 | 0.00 | 0.00 | 55 | 1007.6 |
| 20260831225001 | 92 | 100 | 5.0 | 9.0 | 0.00 | 0.00 | 0.00 | 55 | 1007.7 |
| 20260831224903 | 92 | 99 | 4.0 | 9.0 | 0.00 | 0.00 | 0.00 | 55 | 1007.6 |
| 20260831224758 | 92 | 111 | 4.0 | 10.0 | 0.00 | 0.00 | 0.00 | 55 | 1007.8 |
| 20260831224657 | 92 | 109 | 6.0 | 10.0 | 0.00 | 0.00 | 0.00 | 54 | 1007.8 |
| 20260831224532 | 92 | 92 | 5.0 | 10.0 | 0.00 | 0.00 | 0.00 | 54 | 1007.7 |
| 20260831224431 | 92 | 104 | 5.0 | 10.0 | 0.00 | 0.00 | 0.00 | 55 | 1007.8 |
| 20260831224331 | 92 | 106 | 5.0 | 10.0 | 0.00 | 0.00 | 0.00 | 55 | 1007.7 |
| 20260831224231 | 92 | 76 | 5.0 | 10.0 | 0.00 | 0.00 | 0.00 | 55 | 1007.7 |
| 20260831224132 | 92 | 114 | 5.0 | 10.0 | 0.00 | 0.00 | 0.00 | 54 | 1007.7 |
| 20260831224033 | 92 | 103 | 6.0 | 10.0 | 0.00 | 0.00 | 0.00 | 54 | 1007.7 |
| 20260831223933 | 92 | 82 | 6.0 | 10.0 | 0.00 | 0.00 | 0.00 | 55 | 1007.8 |
| 20260831223832 | 92 | 96 | 5.0 | 10.0 | 0.00 | 0.00 | 0.00 | 55 | 1007.8 |
| 20260831223732 | 92 | 86 | 4.0 | 10.0 | 0.00 | 0.00 | 0.00 | 55 | 1007.8 |
| 20260831223629 | 92 | 100 | 5.0 | 10.0 | 0.00 | 0.00 | 0.00 | 55 | 1007.8 |
| 20260831223525 | 92 | 107 | 6.0 | 10.0 | 0.00 | 0.00 | 0.00 | 55 | 1007.8 |
| 20260831223418 | 92 | 109 | 6.0 | 10.0 | 0.00 | 0.00 | 0.00 | 54 | 1007.8 |
| 20260831223317 | 92 | 103 | 6.0 | 10.0 | 0.00 | 0.00 | 0.00 | 55 | 1007.8 |
| 20260831223215 | 92 | 118 | 6.0 | 10.0 | 0.00 | 0.00 | 0.00 | 55 | 1007.8 |
| 20260831223111 | 92 | 106 | 6.0 | 10.0 | 0.00 | 0.00 | 0.00 | 55 | 1007.8 |
| 20260831223007 | 92 | 111 | 6.0 | 10.0 | 0.00 | 0.00 | 0.00 | 55 | 1007.8 |
| 20260831222904 | 92 | 114 | 6.0 | 10.0 | 0.00 | 0.00 | 0.00 | 55 | 1007.8 |
| 20260831222803 | 92 | 113 | 5.0 | 10.0 | 0.00 | 0.00 | 0.00 | 55 | 1007.9 |
| 20260831222703 | 92 | 117 | 6.0 | 10.0 | 0.00 | 0.00 | 0.00 | 55 | 1007.8 |
| 20260831222603 | 92 | 104 | 6.0 | 10.0 | 0.00 | 0.00 | 0.00 | 55 | 1007.9 |
| 20260831222455 | 92 | 94 | 5.0 | 9.0 | 0.00 | 0.00 | 0.00 | 55 | 1008.0 |
| 20260831222354 | 92 | 78 | 4.0 | 9.0 | 0.00 | 0.00 | 0.00 | 56 | 1007.9 |
| 20260831222232 | 92 | 102 | 5.0 | 9.0 | 0.00 | 0.00 | 0.00 | 56 | 1008.0 |
| 20260831222132 | 92 | 111 | 6.0 | 9.0 | 0.00 | 0.00 | 0.00 | 56 | 1007.9 |
| 20260831222033 | 92 | 110 | 6.0 | 9.0 | 0.00 | 0.00 | 0.00 | 56 | 1007.9 |
| 20260831221932 | 92 | 109 | 6.0 | 11.0 | 0.00 | 0.00 | 0.00 | 56 | 1007.9 |
| 20260831221831 | 92 | 110 | 5.0 | 11.0 | 0.00 | 0.00 | 0.00 | 56 | 1007.9 |
| 20260831221731 | 92 | 109 | 5.0 | 11.0 | 0.00 | 0.00 | 0.00 | 56 | 1007.9 |
| 20260831221632 | 92 | 114 | 6.0 | 11.0 | 0.00 | 0.00 | 0.00 | 56 | 1007.9 |
| 20260831221529 | 92 | 111 | 7.0 | 11.0 | 0.00 | 0.00 | 0.00 | 56 | 1007.9 |
| 20260831221422 | 92 | 117 | 7.0 | 11.0 | 0.00 | 0.00 | 0.00 | 57 | 1007.9 |
| 20260831221320 | 92 | 96 | 6.0 | 11.0 | 0.00 | 0.00 | 0.00 | 57 | 1007.9 |
| 20260831221219 | 92 | 116 | 6.0 | 11.0 | 0.00 | 0.00 | 0.00 | 57 | 1007.9 |
| 20260831221108 | 92 | 127 | 7.0 | 11.0 | 0.00 | 0.00 | 0.00 | 57 | 1007.9 |
| 20260831221005 | 92 | 109 | 8.0 | 11.0 | 0.00 | 0.00 | 0.00 | 57 | 1007.9 |
| 20260831220904 | 92 | 117 | 6.0 | 10.0 | 0.00 | 0.00 | 0.00 | 57 | 1007.9 |
| 20260831220802 | 92 | 107 | 6.0 | 10.0 | 0.00 | 0.00 | 0.00 | 58 | 1007.8 |
| 20260831220656 | 92 | 96 | 7.0 | 10.0 | 0.00 | 0.00 | 0.00 | 58 | 1007.8 |
| 20260831220549 | 92 | 117 | 7.0 | 10.0 | 0.00 | 0.00 | 0.00 | 58 | 1007.9 |
| 20260831220446 | 92 | 96 | 6.0 | 10.0 | 0.00 | 0.00 | 0.00 | 59 | 1007.9 |
| 20260831220337 | 92 | 76 | 6.0 | 12.0 | 0.00 | 0.00 | 0.00 | 59 | 1008.0 |
| 20260831220232 | 92 | 104 | 6.0 | 12.0 | 0.00 | 0.00 | 0.00 | 59 | 1007.9 |
| 20260831220131 | 92 | 73 | 7.0 | 12.0 | 0.00 | 0.00 | 0.00 | 59 | 1007.9 |
| 20260831220032 | 92 | 103 | 8.0 | 12.0 | 0.00 | 0.00 | 0.00 | 59 | 1007.9 |
| 20260831215933 | 92 | 99 | 7.0 | 12.0 | 0.00 | 0.00 | 0.00 | 59 | 1007.9 |
| 20260831215832 | 92 | 103 | 7.0 | 12.0 | 0.00 | 0.00 | 0.00 | 59 | 1008.0 |
| 20260831215720 | 92 | 83 | 7.0 | 12.0 | 0.00 | 0.00 | 0.00 | 60 | 1008.0 |
| 20260831215616 | 92 | 85 | 9.0 | 12.0 | 0.00 | 0.00 | 0.00 | 60 | 1007.9 |
| 20260831215505 | 92 | 93 | 9.0 | 12.0 | 0.00 | 0.00 | 0.00 | 60 | 1008.0 |
| 20260831215402 | 92 | 97 | 9.0 | 14.0 | 0.00 | 0.00 | 0.00 | 60 | 1008.0 |
| 20260831215301 | 92 | 87 | 7.0 | 14.0 | 0.00 | 0.00 | 0.00 | 61 | 1007.9 |
| 20260831215202 | 92 | 109 | 7.0 | 14.0 | 0.00 | 0.00 | 0.00 | 61 | 1008.0 |
| 20260831215102 | 92 | 104 | 7.0 | 14.0 | 0.00 | 0.00 | 0.00 | 61 | 1008.1 |
| 20260831215002 | 91 | 107 | 6.0 | 14.0 | 0.00 | 0.00 | 0.00 | 61 | 1008.0 |
| 20260831214903 | 91 | 120 | 8.0 | 14.0 | 0.00 | 0.00 | 0.00 | 61 | 1008.0 |
| 20260831214802 | 91 | 87 | 8.0 | 14.0 | 0.00 | 0.00 | 0.00 | 61 | 1008.1 |
| 20260831214701 | 91 | 94 | 8.0 | 14.0 | 0.00 | 0.00 | 0.00 | 62 | 1008.1 |
| 20260831214602 | 92 | 90 | 10.0 | 14.0 | 0.00 | 0.00 | 0.00 | 62 | 1008.1 |
| 20260831214503 | 92 | 97 | 9.0 | 14.0 | 0.00 | 0.00 | 0.00 | 62 | 1008.1 |
| 20260831214401 | 92 | 114 | 8.0 | 14.0 | 0.00 | 0.00 | 0.00 | 63 | 1008.1 |
| 20260831214302 | 92 | 100 | 8.0 | 14.0 | 0.00 | 0.00 | 0.00 | 63 | 1008.2 |
| 20260831214203 | 92 | 75 | 9.0 | 14.0 | 0.00 | 0.00 | 0.00 | 63 | 1008.2 |
| 20260831214102 | 92 | 93 | 9.0 | 14.0 | 0.00 | 0.00 | 0.00 | 63 | 1008.2 |
| 20260831214001 | 92 | 96 | 10.0 | 14.0 | 0.00 | 0.00 | 0.00 | 63 | 1008.2 |
| 20260831213904 | 92 | 111 | 10.0 | 14.0 | 0.00 | 0.00 | 0.00 | 63 | 1008.2 |
| 20260831213801 | 92 | 99 | 9.0 | 14.0 | 0.00 | 0.00 | 0.00 | 63 | 1008.3 |
| 20260831213701 | 92 | 99 | 7.0 | 14.0 | 0.00 | 0.00 | 0.00 | 62 | 1008.2 |
| 20260831213603 | 92 | 103 | 9.0 | 14.0 | 0.00 | 0.00 | 0.00 | 62 | 1008.2 |
| 20260831213503 | 92 | 103 | 10.0 | 14.0 | 0.00 | 0.00 | 0.00 | 62 | 1008.2 |
| 20260831213403 | 92 | 78 | 9.0 | 14.0 | 0.00 | 0.00 | 0.00 | 62 | 1008.1 |
| 20260831213301 | 93 | 76 | 8.0 | 13.0 | 0.00 | 0.00 | 0.00 | 62 | 1008.4 |
| 20260831213202 | 93 | 93 | 8.0 | 13.0 | 0.00 | 0.00 | 0.00 | 62 | 1008.4 |
| 20260831213102 | 93 | 110 | 9.0 | 13.0 | 0.00 | 0.00 | 0.00 | 62 | 1008.4 |
| 20260831213001 | 93 | 104 | 7.0 | 13.0 | 0.00 | 0.00 | 0.00 | 62 | 1008.3 |
| 20260831212903 | 93 | 109 | 8.0 | 14.0 | 0.00 | 0.00 | 0.00 | 62 | 1008.3 |
| 20260831212801 | 93 | 82 | 8.0 | 14.0 | 0.00 | 0.00 | 0.00 | 61 | 1008.4 |
| 20260831212701 | 93 | 97 | 8.0 | 14.0 | 0.00 | 0.00 | 0.00 | 61 | 1008.4 |
| 20260831212600 | 94 | 82 | 7.0 | 14.0 | 0.00 | 0.00 | 0.00 | 61 | 1008.3 |
| 20260831212500 | 94 | 89 | 7.0 | 14.0 | 0.00 | 0.00 | 0.00 | 60 | 1008.3 |
| 20260831212400 | 94 | 82 | 7.0 | 14.0 | 0.00 | 0.00 | 0.00 | 60 | 1008.3 |
| 20260831212300 | 94 | 76 | 8.0 | 14.0 | 0.00 | 0.00 | 0.00 | 59 | 1008.3 |
| 20260831212202 | 94 | 100 | 9.0 | 14.0 | 0.00 | 0.00 | 0.00 | 59 | 1008.3 |
| 20260831212101 | 94 | 121 | 10.0 | 14.0 | 0.00 | 0.00 | 0.00 | 58 | 1008.3 |
| 20260831212001 | 94 | 99 | 10.0 | 14.0 | 0.00 | 0.00 | 0.00 | 57 | 1008.3 |
| 20260831211900 | 94 | 100 | 9.0 | 14.0 | 0.00 | 0.00 | 0.00 | 57 | 1008.3 |
| 20260831211802 | 94 | 102 | 8.0 | 14.0 | 0.00 | 0.00 | 0.00 | 57 | 1008.3 |
| 20260831211702 | 94 | 113 | 9.0 | 14.0 | 0.00 | 0.00 | 0.00 | 57 | 1008.2 |
| 20260831211602 | 94 | 125 | 9.0 | 14.0 | 0.00 | 0.00 | 0.00 | 56 | 1008.3 |
| 20260831211502 | 94 | 99 | 10.0 | 14.0 | 0.00 | 0.00 | 0.00 | 56 | 1008.4 |
| 20260831211401 | 94 | 113 | 9.0 | 14.0 | 0.00 | 0.00 | 0.00 | 56 | 1008.4 |
| 20260831211301 | 94 | 118 | 8.0 | 12.0 | 0.00 | 0.00 | 0.00 | 55 | 1008.3 |
| 20260831211201 | 94 | 104 | 8.0 | 14.0 | 0.00 | 0.00 | 0.00 | 55 | 1008.4 |
| 20260831211101 | 94 | 94 | 7.0 | 14.0 | 0.00 | 0.00 | 0.00 | 55 | 1008.4 |
| 20260831211002 | 94 | 113 | 8.0 | 14.0 | 0.00 | 0.00 | 0.00 | 55 | 1008.4 |
| 20260831210900 | 94 | 76 | 8.0 | 14.0 | 0.00 | 0.00 | 0.00 | 55 | 1008.4 |
| 20260831210801 | 94 | 56 | 8.0 | 14.0 | 0.00 | 0.00 | 0.00 | 56 | 1008.4 |
| 20260831210701 | 94 | 90 | 9.0 | 14.0 | 0.00 | 0.00 | 0.00 | 57 | 1008.4 |
| 20260831210601 | 94 | 79 | 7.0 | 14.0 | 0.00 | 0.00 | 0.00 | 59 | 1008.4 |
| 20260831210502 | 94 | 78 | 8.0 | 14.0 | 0.00 | 0.00 | 0.00 | 59 | 1008.4 |
| 20260831210401 | 94 | 99 | 9.0 | 14.0 | 0.00 | 0.00 | 0.00 | 60 | 1008.4 |
| 20260831210300 | 94 | 90 | 10.0 | 14.0 | 0.00 | 0.00 | 0.00 | 59 | 1008.4 |
| 20260831210201 | 94 | 87 | 10.0 | 14.0 | 0.00 | 0.00 | 0.00 | 59 | 1008.4 |
| 20260831210000 | 94 | 113 | 8.0 | 12.0 | 0.00 | 0.00 | 0.00 | 59 | 1008.4 |
| 20260831205901 | 94 | 121 | 8.0 | 12.0 | 0.00 | 0.00 | 0.00 | 60 | 1008.4 |
| 20260831205800 | 94 | 111 | 7.0 | 12.0 | 0.00 | 0.00 | 0.00 | 60 | 1008.4 |
| 20260831205702 | 94 | 103 | 7.0 | 12.0 | 0.00 | 0.00 | 0.00 | 59 | 1008.4 |
| 20260831205600 | 94 | 89 | 8.0 | 12.0 | 0.00 | 0.00 | 0.00 | 59 | 1008.4 |
| 20260831205502 | 94 | 82 | 8.0 | 12.0 | 0.00 | 0.00 | 0.00 | 59 | 1008.4 |
| 20260831205401 | 94 | 107 | 9.0 | 12.0 | 0.00 | 0.00 | 0.00 | 59 | 1008.4 |
| 20260831205305 | 94 | 99 | 7.0 | 12.0 | 0.00 | 0.00 | 0.00 | 59 | 1008.3 |
| 20260831205201 | 94 | 113 | 6.0 | 12.0 | 0.00 | 0.00 | 0.00 | 58 | 1008.4 |
| 20260831205059 | 94 | 79 | 7.0 | 12.0 | 0.00 | 0.00 | 0.00 | 57 | 1008.5 |
| 20260831204959 | 94 | 103 | 9.0 | 12.0 | 0.00 | 0.00 | 0.00 | 57 | 1008.4 |
| 20260831204901 | 94 | 107 | 8.0 | 12.0 | 0.00 | 0.00 | 0.00 | 58 | 1008.4 |
| 20260831204800 | 94 | 109 | 8.0 | 12.0 | 0.00 | 0.00 | 0.00 | 58 | 1008.4 |
| 20260831204701 | 94 | 65 | 7.0 | 10.0 | 0.00 | 0.00 | 0.00 | 58 | 1008.5 |
| 20260831204601 | 94 | 49 | 5.0 | 9.0 | 0.00 | 0.00 | 0.00 | 59 | 1008.5 |
| 20260831204501 | 94 | 99 | 7.0 | 9.0 | 0.00 | 0.00 | 0.00 | 59 | 1008.5 |
| 20260831204401 | 94 | 99 | 7.0 | 9.0 | 0.00 | 0.00 | 0.00 | 59 | 1008.4 |
| 20260831204301 | 94 | 99 | 7.0 | 9.0 | 0.00 | 0.00 | 0.00 | 59 | 1008.5 |
| 20260831204202 | 94 | 107 | 7.0 | 9.0 | 0.00 | 0.00 | 0.00 | 59 | 1008.5 |
| 20260831204100 | 94 | 93 | 7.0 | 9.0 | 0.00 | 0.00 | 0.00 | 59 | 1008.5 |
| 20260831204000 | 94 | 89 | 5.0 | 9.0 | 0.00 | 0.00 | 0.00 | 59 | 1008.5 |
| 20260831203900 | 94 | 93 | 4.0 | 7.0 | 0.00 | 0.00 | 0.00 | 59 | 1008.6 |
| 20260831203801 | 94 | 90 | 4.0 | 7.0 | 0.00 | 0.00 | 0.00 | 59 | 1008.5 |
| 20260831203700 | 94 | 97 | 3.0 | 7.0 | 0.00 | 0.00 | 0.00 | 58 | 1008.7 |
| 20260831203601 | 94 | 78 | 2.0 | 7.0 | 0.00 | 0.00 | 0.00 | 57 | 1008.7 |
| 20260831203500 | 94 | 78 | 3.0 | 7.0 | 0.00 | 0.00 | 0.00 | 57 | 1008.7 |
| 20260831203400 | 94 | 87 | 4.0 | 7.0 | 0.00 | 0.00 | 0.00 | 57 | 1008.7 |
| 20260831203300 | 94 | 90 | 5.0 | 9.0 | 0.00 | 0.00 | 0.00 | 57 | 1008.7 |
| 20260831203200 | 94 | 109 | 5.0 | 9.0 | 0.00 | 0.00 | 0.00 | 57 | 1008.7 |
| 20260831203100 | 94 | 102 | 5.0 | 9.0 | 0.00 | 0.00 | 0.00 | 57 | 1008.7 |
| 20260831203001 | 94 | 104 | 4.0 | 9.0 | 0.00 | 0.00 | 0.00 | 59 | 1008.7 |
| 20260831202901 | 93 | 97 | 3.0 | 9.0 | 0.00 | 0.00 | 0.00 | 59 | 1008.8 |
| 20260831202801 | 94 | 54 | 3.0 | 9.0 | 0.00 | 0.00 | 0.00 | 59 | 1008.8 |
| 20260831202659 | 94 | 78 | 4.0 | 9.0 | 0.00 | 0.00 | 0.00 | 59 | 1008.8 |
| 20260831202601 | 94 | 59 | 5.0 | 9.0 | 0.00 | 0.00 | 0.00 | 59 | 1008.8 |
| 20260831202459 | 94 | 6 | 5.0 | 9.0 | 0.00 | 0.00 | 0.00 | 59 | 1008.8 |
| 20260831202402 | 94 | 10 | 3.0 | 9.0 | 0.00 | 0.00 | 0.00 | 59 | 1008.8 |
| 20260831202300 | 94 | 340 | 4.0 | 7.0 | 0.00 | 0.00 | 0.00 | 58 | 1008.9 |
| 20260831202200 | 94 | 16 | 5.0 | 7.0 | 0.00 | 0.00 | 0.00 | 58 | 1008.8 |
| 20260831202059 | 94 | 18 | 4.0 | 7.0 | 0.00 | 0.00 | 0.00 | 59 | 1008.9 |
| 20260831202002 | 94 | 17 | 2.0 | 9.0 | 0.00 | 0.00 | 0.00 | 59 | 1008.9 |
| 20260831201900 | 94 | 24 | 2.0 | 9.0 | 0.00 | 0.00 | 0.00 | 58 | 1009.0 |
| 20260831201801 | 94 | 20 | 3.0 | 9.0 | 0.00 | 0.00 | 0.00 | 58 | 1009.0 |
| 20260831201700 | 94 | 23 | 3.0 | 9.0 | 0.00 | 0.00 | 0.00 | 58 | 1009.0 |
| 20260831201559 | 95 | 10 | 3.0 | 9.0 | 0.00 | 0.00 | 0.00 | 57 | 1009.1 |
| 20260831201500 | 95 | 0 | 4.0 | 9.0 | 0.00 | 0.00 | 0.00 | 58 | 1009.1 |
| 20260831201400 | 95 | 41 | 4.0 | 9.0 | 0.00 | 0.00 | 0.00 | 58 | 1009.1 |
| 20260831201259 | 95 | 44 | 4.0 | 9.0 | 0.00 | 0.00 | 0.00 | 58 | 1009.1 |
| 20260831201200 | 95 | 37 | 5.0 | 9.0 | 0.00 | 0.00 | 0.00 | 58 | 1009.1 |
| 20260831201100 | 95 | 45 | 4.0 | 9.0 | 0.00 | 0.00 | 0.00 | 58 | 1009.2 |
| 20260831201000 | 95 | 34 | 3.0 | 9.0 | 0.00 | 0.00 | 0.00 | 58 | 1009.0 |
| 20260831200900 | 95 | 80 | 5.0 | 9.0 | 0.00 | 0.00 | 0.00 | 57 | 1009.0 |
| 20260831200800 | 96 | 21 | 4.0 | 9.0 | 0.00 | 0.00 | 0.00 | 57 | 1009.0 |
| 20260831200700 | 96 | 103 | 3.0 | 9.0 | 0.00 | 0.00 | 0.00 | 57 | 1009.0 |
| 20260831200559 | 95 | 27 | 4.0 | 9.0 | 0.00 | 0.00 | 0.00 | 57 | 1009.0 |
| 20260831200501 | 96 | 58 | 4.0 | 9.0 | 0.00 | 0.00 | 0.00 | 57 | 1009.0 |
| 20260831200359 | 96 | 41 | 4.0 | 9.0 | 0.00 | 0.00 | 0.00 | 56 | 1009.0 |
| 20260831200259 | 96 | 0 | 4.0 | 9.0 | 0.00 | 0.00 | 0.00 | 54 | 1009.0 |
| 20260831200200 | 96 | 58 | 5.0 | 9.0 | 0.00 | 0.00 | 0.00 | 54 | 1009.0 |
| 20260831200101 | 96 | 109 | 5.0 | 9.0 | 0.00 | 0.00 | 0.00 | 54 | 1009.0 |
| 20260831200001 | 97 | 68 | 5.0 | 9.0 | 0.00 | 0.00 | 0.00 | 54 | 1009.0 |
| 20260831195900 | 97 | 41 | 4.0 | 9.0 | 0.00 | 0.00 | 0.00 | 54 | 1009.0 |
| 20260831195759 | 96 | 83 | 3.0 | 6.0 | 0.00 | 0.00 | 0.00 | 54 | 1009.0 |
| 20260831195659 | 96 | 123 | 4.0 | 6.0 | 0.00 | 0.00 | 0.00 | 55 | 1009.0 |
| 20260831195600 | 96 | 106 | 4.0 | 6.0 | 0.00 | 0.00 | 0.00 | 56 | 1009.0 |
| 20260831195500 | 95 | 131 | 3.0 | 6.0 | 0.00 | 0.00 | 0.00 | 56 | 1009.1 |
| 20260831195400 | 95 | 116 | 3.0 | 6.0 | 0.00 | 0.00 | 0.00 | 56 | 1009.1 |
| 20260831195301 | 95 | 162 | 2.0 | 7.0 | 0.00 | 0.00 | 0.00 | 55 | 1009.1 |
| 20260831195159 | 95 | 121 | 1.0 | 7.0 | 0.00 | 0.00 | 0.00 | 55 | 1009.1 |
| 20260831195100 | 95 | 62 | 1.0 | 7.0 | 0.00 | 0.00 | 0.00 | 55 | 1009.1 |
| 20260831195000 | 95 | 62 | 1.0 | 7.0 | 0.00 | 0.00 | 0.00 | 55 | 1009.1 |
| 20260831194900 | 95 | 62 | 2.0 | 7.0 | 0.00 | 0.00 | 0.00 | 55 | 1009.1 |
| 20260831194758 | 95 | 62 | 3.0 | 7.0 | 0.00 | 0.00 | 0.00 | 55 | 1009.1 |
| 20260831194658 | 95 | 94 | 3.0 | 7.0 | 0.00 | 0.00 | 0.00 | 54 | 1009.3 |
| 20260831194559 | 95 | 102 | 3.0 | 7.0 | 0.00 | 0.00 | 0.00 | 54 | 1009.2 |
| 20260831194458 | 95 | 102 | 4.0 | 7.0 | 0.00 | 0.00 | 0.00 | 54 | 1009.2 |
| 20260831194400 | 95 | 92 | 5.0 | 7.0 | 0.00 | 0.00 | 0.00 | 54 | 1009.2 |
| 20260831194300 | 95 | 107 | 4.0 | 6.0 | 0.00 | 0.00 | 0.00 | 55 | 1009.2 |
| 20260831194159 | 95 | 100 | 2.0 | 7.0 | 0.00 | 0.00 | 0.00 | 55 | 1009.2 |
| 20260831194059 | 95 | 0 | 2.0 | 10.0 | 0.00 | 0.00 | 0.00 | 55 | 1009.3 |
| 20260831193959 | 95 | 309 | 3.0 | 10.0 | 0.00 | 0.00 | 0.00 | 56 | 1009.3 |
| 20260831193858 | 94 | 341 | 3.0 | 10.0 | 0.00 | 0.00 | 0.00 | 56 | 1009.3 |
| 20260831193800 | 94 | 347 | 3.0 | 10.0 | 0.00 | 0.00 | 0.00 | 55 | 1009.2 |
| 20260831193700 | 94 | 329 | 4.0 | 10.0 | 0.00 | 0.00 | 0.00 | 55 | 1009.3 |
| 20260831193557 | 94 | 351 | 4.0 | 10.0 | 0.00 | 0.00 | 0.00 | 56 | 1009.4 |
| 20260831193453 | 94 | 350 | 3.0 | 10.0 | 0.00 | 0.00 | 0.00 | 56 | 1009.4 |
| 20260831193349 | 95 | 18 | 4.0 | 10.0 | 0.00 | 0.00 | 0.00 | 56 | 1009.3 |
| 20260831193248 | 95 | 314 | 6.0 | 10.0 | 0.00 | 0.00 | 0.00 | 55 | 1009.4 |
| 20260831193143 | 95 | 0 | 5.0 | 10.0 | 0.00 | 0.00 | 0.00 | 55 | 1009.4 |
| 20260831193041 | 95 | 7 | 5.0 | 9.0 | 0.00 | 0.00 | 0.00 | 53 | 1009.4 |
| 20260831192939 | 96 | 347 | 6.0 | 9.0 | 0.00 | 0.00 | 0.00 | 53 | 1009.4 |
| 20260831192833 | 96 | 0 | 6.0 | 9.0 | 0.00 | 0.00 | 0.00 | 54 | 1009.4 |
| 20260831192732 | 96 | 17 | 5.0 | 9.0 | 0.00 | 0.00 | 0.00 | 54 | 1009.4 |
| 20260831192631 | 96 | 24 | 4.0 | 9.0 | 0.00 | 0.00 | 0.00 | 56 | 1009.4 |
| 20260831192533 | 96 | 35 | 4.0 | 9.0 | 0.00 | 0.00 | 0.00 | 56 | 1009.4 |
| 20260831192433 | 96 | 20 | 4.0 | 9.0 | 0.00 | 0.00 | 0.00 | 55 | 1009.5 |
| 20260831192332 | 96 | 16 | 4.0 | 9.0 | 0.00 | 0.00 | 0.00 | 55 | 1009.4 |
| 20260831192231 | 96 | 51 | 6.0 | 9.0 | 0.00 | 0.00 | 0.00 | 55 | 1009.4 |
| 20260831192132 | 96 | 109 | 5.0 | 9.0 | 0.00 | 0.00 | 0.00 | 54 | 1009.5 |
| 20260831192033 | 96 | 100 | 5.0 | 9.0 | 0.00 | 0.00 | 0.00 | 54 | 1009.5 |
| 20260831191932 | 96 | 111 | 6.0 | 9.0 | 0.00 | 0.00 | 0.00 | 55 | 1009.5 |
| 20260831191833 | 96 | 93 | 5.0 | 7.0 | 0.00 | 0.00 | 0.00 | 55 | 1009.5 |
| 20260831191732 | 96 | 66 | 4.0 | 6.0 | 0.00 | 0.00 | 0.00 | 54 | 1009.5 |
| 20260831191633 | 96 | 45 | 2.0 | 7.0 | 0.00 | 0.00 | 0.00 | 54 | 1009.5 |
| 20260831191533 | 96 | 73 | 0.0 | 9.0 | 0.00 | 0.00 | 0.00 | 54 | 1009.6 |
| 20260831191432 | 96 | 73 | 1.0 | 9.0 | 0.00 | 0.00 | 0.00 | 54 | 1009.6 |
| 20260831191333 | 96 | 73 | 2.0 | 9.0 | 0.00 | 0.00 | 0.00 | 55 | 1009.5 |
| 20260831191232 | 96 | 103 | 1.0 | 9.0 | 0.00 | 0.00 | 0.00 | 55 | 1009.6 |
| 20260831191131 | 95 | 159 | 1.0 | 9.0 | 0.00 | 0.00 | 0.00 | 55 | 1009.6 |
| 20260831191031 | 95 | 131 | 2.0 | 9.0 | 0.00 | 0.00 | 0.00 | 56 | 1009.6 |
| 20260831190931 | 94 | 133 | 2.0 | 9.0 | 0.00 | 0.00 | 0.00 | 56 | 1009.7 |
| 20260831190832 | 94 | 104 | 5.0 | 9.0 | 0.00 | 0.00 | 0.00 | 56 | 1009.7 |
| 20260831190731 | 94 | 21 | 7.0 | 9.0 | 0.00 | 0.00 | 0.00 | 56 | 1009.7 |
| 20260831190632 | 94 | 307 | 6.0 | 9.0 | 0.00 | 0.00 | 0.00 | 56 | 1009.7 |
| 20260831190532 | 94 | 289 | 4.0 | 9.0 | 0.00 | 0.00 | 0.00 | 56 | 1009.7 |
| 20260831190408 | 94 | 337 | 3.0 | 9.0 | 0.00 | 0.00 | 0.00 | 56 | 1009.8 |
| 20260831190306 | 94 | 71 | 3.0 | 9.0 | 0.00 | 0.00 | 0.00 | 56 | 1009.8 |
| 20260831190205 | 94 | 65 | 4.0 | 9.0 | 0.00 | 0.00 | 0.00 | 58 | 1009.8 |
| 20260831190003 | 94 | 87 | 5.0 | 9.0 | 0.00 | 0.00 | 0.00 | 57 | 1009.9 |
| 20260831185903 | 94 | 90 | 4.0 | 9.0 | 0.00 | 0.00 | 0.00 | 57 | 1009.8 |
| 20260831185803 | 94 | 85 | 3.0 | 6.0 | 0.00 | 0.00 | 0.00 | 57 | 1009.8 |
| 20260831185703 | 94 | 71 | 4.0 | 6.0 | 0.00 | 0.00 | 0.00 | 57 | 1009.8 |
| 20260831185604 | 94 | 65 | 3.0 | 6.0 | 0.00 | 0.00 | 0.00 | 57 | 1009.9 |
| 20260831185504 | 94 | 63 | 2.0 | 6.0 | 0.00 | 0.00 | 0.00 | 57 | 1009.9 |
| 20260831185403 | 94 | 71 | 3.0 | 6.0 | 0.00 | 0.00 | 0.00 | 57 | 1009.8 |
| 20260831185306 | 94 | 69 | 4.0 | 9.0 | 0.00 | 0.00 | 0.00 | 57 | 1009.8 |
| 20260831185204 | 94 | 63 | 3.0 | 9.0 | 0.00 | 0.00 | 0.00 | 57 | 1009.8 |
| 20260831185102 | 93 | 10 | 3.0 | 9.0 | 0.00 | 0.00 | 0.00 | 57 | 1009.9 |
| 20260831185005 | 93 | 45 | 3.0 | 9.0 | 0.00 | 0.00 | 0.00 | 57 | 1009.9 |
| 20260831184904 | 94 | 89 | 3.0 | 9.0 | 0.00 | 0.00 | 0.00 | 57 | 1009.9 |
| 20260831184803 | 93 | 44 | 3.0 | 9.0 | 0.00 | 0.00 | 0.00 | 58 | 1010.0 |
| 20260831184704 | 93 | 41 | 2.0 | 9.0 | 0.00 | 0.00 | 0.00 | 58 | 1009.9 |
| 20260831184605 | 93 | 83 | 3.0 | 9.0 | 0.00 | 0.00 | 0.00 | 57 | 1009.9 |
| 20260831184502 | 93 | 90 | 4.0 | 9.0 | 0.00 | 0.00 | 0.00 | 57 | 1010.0 |
| 20260831184404 | 94 | 90 | 5.0 | 9.0 | 0.00 | 0.00 | 0.00 | 56 | 1010.0 |
| 20260831184303 | 94 | 66 | 4.0 | 7.0 | 0.00 | 0.00 | 0.00 | 56 | 1010.0 |
| 20260831184203 | 94 | 76 | 4.0 | 11.0 | 0.00 | 0.00 | 0.00 | 55 | 1010.0 |
| 20260831184104 | 94 | 39 | 3.0 | 11.0 | 0.00 | 0.00 | 0.00 | 55 | 1010.0 |
| 20260831184005 | 95 | 18 | 2.0 | 11.0 | 0.00 | 0.00 | 0.00 | 55 | 1010.1 |
| 20260831183903 | 95 | 32 | 3.0 | 11.0 | 0.00 | 0.00 | 0.00 | 55 | 1010.0 |
| 20260831183803 | 95 | 28 | 4.0 | 11.0 | 0.00 | 0.00 | 0.00 | 56 | 1010.0 |
| 20260831183703 | 95 | 35 | 3.0 | 11.0 | 0.00 | 0.00 | 0.00 | 56 | 1010.0 |
| 20260831183603 | 95 | 75 | 4.0 | 11.0 | 0.00 | 0.00 | 0.00 | 55 | 1009.9 |
| 20260831183503 | 95 | 94 | 3.0 | 11.0 | 0.00 | 0.00 | 0.00 | 55 | 1010.0 |
| 20260831183403 | 95 | 96 | 5.0 | 11.0 | 0.00 | 0.00 | 0.00 | 55 | 1010.0 |
| 20260831183303 | 95 | 76 | 6.0 | 11.0 | 0.00 | 0.00 | 0.00 | 56 | 1010.0 |
| 20260831183205 | 95 | 99 | 3.0 | 7.0 | 0.00 | 0.00 | 0.00 | 56 | 1010.0 |
| 20260831183103 | 95 | 111 | 1.0 | 7.0 | 0.00 | 0.00 | 0.00 | 54 | 1010.0 |
| 20260831183004 | 95 | 137 | 1.0 | 7.0 | 0.00 | 0.00 | 0.00 | 54 | 1010.0 |
| 20260831182902 | 95 | 135 | 3.0 | 7.0 | 0.00 | 0.00 | 0.00 | 54 | 1010.0 |
| 20260831182803 | 96 | 106 | 4.0 | 7.0 | 0.00 | 0.00 | 0.00 | 54 | 1010.1 |
| 20260831182704 | 95 | 106 | 4.0 | 9.0 | 0.00 | 0.00 | 0.00 | 54 | 1010.2 |
| 20260831182603 | 95 | 131 | 4.0 | 9.0 | 0.00 | 0.00 | 0.00 | 54 | 1010.1 |
| 20260831182503 | 95 | 104 | 4.0 | 9.0 | 0.00 | 0.00 | 0.00 | 55 | 1010.1 |
| 20260831182359 | 96 | 82 | 3.0 | 9.0 | 0.00 | 0.00 | 0.00 | 55 | 1010.2 |
| 20260831182257 | 96 | 82 | 3.0 | 9.0 | 0.00 | 0.00 | 0.00 | 55 | 1010.2 |
| 20260831182157 | 95 | 127 | 2.0 | 9.0 | 0.00 | 0.00 | 0.00 | 55 | 1010.2 |
| 20260831182058 | 95 | 110 | 3.0 | 9.0 | 0.00 | 0.00 | 0.00 | 54 | 1010.2 |
| 20260831181956 | 95 | 110 | 5.0 | 9.0 | 0.00 | 0.00 | 0.00 | 54 | 1010.1 |
| 20260831181857 | 95 | 90 | 5.0 | 9.0 | 0.00 | 0.00 | 0.00 | 54 | 1010.2 |
| 20260831181756 | 96 | 100 | 4.0 | 6.0 | 0.00 | 0.00 | 0.00 | 53 | 1010.1 |
| 20260831181656 | 96 | 106 | 5.0 | 6.0 | 0.00 | 0.00 | 0.00 | 54 | 1010.1 |
| 20260831181556 | 96 | 131 | 4.0 | 6.0 | 0.00 | 0.00 | 0.00 | 55 | 1010.2 |
| 20260831181458 | 96 | 124 | 3.0 | 6.0 | 0.00 | 0.00 | 0.00 | 55 | 1010.2 |
| 20260831181358 | 96 | 125 | 2.0 | 5.0 | 0.00 | 0.00 | 0.00 | 54 | 1010.1 |
| 20260831181256 | 96 | 142 | 1.0 | 5.0 | 0.00 | 0.00 | 0.00 | 55 | 1010.2 |
| 20260831181157 | 96 | 140 | 2.0 | 5.0 | 0.00 | 0.00 | 0.00 | 55 | 1010.2 |
| 20260831181057 | 96 | 137 | 2.0 | 5.0 | 0.00 | 0.00 | 0.00 | 55 | 1010.3 |
| 20260831180957 | 95 | 144 | 3.0 | 5.0 | 0.00 | 0.00 | 0.00 | 55 | 1010.3 |
| 20260831180857 | 95 | 159 | 3.0 | 5.0 | 0.00 | 0.00 | 0.00 | 56 | 1010.3 |
| 20260831180757 | 94 | 152 | 3.0 | 5.0 | 0.00 | 0.00 | 0.00 | 58 | 1010.3 |
| 20260831180656 | 94 | 127 | 2.0 | 4.0 | 0.00 | 0.00 | 0.00 | 56 | 1010.3 |
| 20260831180556 | 94 | 154 | 1.0 | 4.0 | 0.00 | 0.00 | 0.00 | 58 | 1010.4 |
| 20260831180456 | 93 | 120 | 0.0 | 4.0 | 0.00 | 0.00 | 0.00 | 59 | 1010.4 |
| 20260831180358 | 93 | 118 | 0.0 | 5.0 | 0.00 | 0.00 | 0.00 | 59 | 1010.4 |
| 20260831180258 | 93 | 118 | 1.0 | 5.0 | 0.00 | 0.00 | 0.00 | 59 | 1010.4 |
| 20260831180156 | 93 | 118 | 2.0 | 5.0 | 0.00 | 0.00 | 0.00 | 59 | 1010.4 |
| 20260831180056 | 92 | 118 | 2.0 | 5.0 | 0.00 | 0.00 | 0.00 | 59 | 1010.5 |
| 20260831175957 | 92 | 80 | 2.0 | 5.0 | 0.00 | 0.00 | 0.00 | 59 | 1010.5 |
| 20260831175856 | 92 | 78 | 2.0 | 5.0 | 0.00 | 0.00 | 0.00 | 59 | 1010.5 |
| 20260831175757 | 92 | 73 | 2.0 | 5.0 | 0.00 | 0.00 | 0.00 | 60 | 1010.6 |
| 20260831175657 | 92 | 80 | 2.0 | 5.0 | 0.00 | 0.00 | 0.00 | 61 | 1010.5 |
| 20260831175558 | 92 | 32 | 4.0 | 5.0 | 0.00 | 0.00 | 0.00 | 60 | 1010.5 |
| 20260831175456 | 92 | 288 | 3.0 | 5.0 | 0.00 | 0.00 | 0.00 | 60 | 1010.5 |
| 20260831175355 | 92 | 295 | 2.0 | 5.0 | 0.00 | 0.00 | 0.00 | 60 | 1010.5 |
| 20260831175257 | 92 | 0 | 2.0 | 5.0 | 0.00 | 0.00 | 0.00 | 60 | 1010.5 |
| 20260831175155 | 92 | 0 | 3.0 | 5.0 | 0.00 | 0.00 | 0.00 | 60 | 1010.6 |
| 20260831175056 | 92 | 0 | 1.0 | 5.0 | 0.00 | 0.00 | 0.00 | 61 | 1010.6 |
| 20260831174957 | 91 | 13 | 3.0 | 5.0 | 0.00 | 0.00 | 0.00 | 61 | 1010.6 |
| 20260831174857 | 91 | 13 | 4.0 | 5.0 | 0.00 | 0.00 | 0.00 | 61 | 1010.6 |
| 20260831174757 | 91 | 0 | 4.0 | 5.0 | 0.00 | 0.00 | 0.00 | 61 | 1010.7 |
| 20260831174657 | 91 | 354 | 4.0 | 5.0 | 0.00 | 0.00 | 0.00 | 61 | 1010.6 |
| 20260831174556 | 91 | 62 | 3.0 | 5.0 | 0.00 | 0.00 | 0.00 | 61 | 1010.5 |
| 20260831174455 | 91 | 16 | 1.0 | 5.0 | 0.00 | 0.00 | 0.00 | 61 | 1010.6 |
| 20260831174357 | 92 | 87 | 2.0 | 5.0 | 0.00 | 0.00 | 0.00 | 60 | 1010.6 |
| 20260831174257 | 92 | 87 | 2.0 | 5.0 | 0.00 | 0.00 | 0.00 | 61 | 1010.6 |
| 20260831174156 | 92 | 62 | 2.0 | 5.0 | 0.00 | 0.00 | 0.00 | 61 | 1010.6 |
| 20260831174058 | 92 | 38 | 1.0 | 5.0 | 0.00 | 0.00 | 0.00 | 61 | 1010.6 |
| 20260831173955 | 92 | 31 | 0.0 | 4.0 | 0.00 | 0.00 | 0.00 | 61 | 1010.7 |
| 20260831173857 | 92 | 31 | 1.0 | 4.0 | 0.00 | 0.00 | 0.00 | 61 | 1010.6 |
| 20260831173755 | 92 | 31 | 1.0 | 4.0 | 0.00 | 0.00 | 0.00 | 61 | 1010.7 |
| 20260831173656 | 92 | 39 | 2.0 | 4.0 | 0.00 | 0.00 | 0.00 | 61 | 1010.7 |
| 20260831173556 | 92 | 39 | 2.0 | 4.0 | 0.00 | 0.00 | 0.00 | 61 | 1010.7 |
| 20260831173455 | 92 | 110 | 1.0 | 4.0 | 0.00 | 0.00 | 0.00 | 62 | 1010.7 |
| 20260831173357 | 92 | 140 | 0.0 | 1.0 | 0.00 | 0.00 | 0.00 | 61 | 1010.8 |
| 20260831173258 | 92 | 140 | 0.0 | 2.0 | 0.00 | 0.00 | 0.00 | 61 | 1010.8 |
| 20260831173157 | 92 | 219 | 0.0 | 3.0 | 0.00 | 0.00 | 0.00 | 61 | 1010.8 |
| 20260831173058 | 92 | 219 | 0.0 | 3.0 | 0.00 | 0.00 | 0.00 | 61 | 1010.8 |
| 20260831172958 | 92 | 231 | 0.0 | 3.0 | 0.00 | 0.00 | 0.00 | 61 | 1010.8 |
| 20260831172858 | 92 | 231 | 0.0 | 3.0 | 0.00 | 0.00 | 0.00 | 60 | 1010.9 |
| 20260831172756 | 92 | 231 | 0.0 | 4.0 | 0.00 | 0.00 | 0.00 | 62 | 1010.9 |
| 20260831172657 | 92 | 231 | 0.0 | 4.0 | 0.00 | 0.00 | 0.00 | 62 | 1010.9 |
| 20260831172555 | 92 | 231 | 0.0 | 4.0 | 0.00 | 0.00 | 0.00 | 61 | 1010.9 |
| 20260831172455 | 92 | 233 | 0.0 | 5.0 | 0.00 | 0.00 | 0.00 | 61 | 1010.9 |
| 20260831172358 | 92 | 235 | 2.0 | 5.0 | 0.00 | 0.00 | 0.00 | 61 | 1010.9 |
| 20260831172255 | 92 | 235 | 2.0 | 5.0 | 0.00 | 0.00 | 0.00 | 61 | 1010.9 |
| 20260831172157 | 92 | 238 | 2.0 | 5.0 | 0.00 | 0.00 | 0.00 | 61 | 1010.9 |
| 20260831172055 | 92 | 254 | 2.0 | 5.0 | 0.00 | 0.00 | 0.00 | 61 | 1010.9 |
| 20260831171957 | 92 | 44 | 2.0 | 5.0 | 0.00 | 0.00 | 0.00 | 61 | 1011.0 |
| 20260831171855 | 92 | 45 | 2.0 | 5.0 | 0.00 | 0.00 | 0.00 | 62 | 1011.0 |
| 20260831171755 | 91 | 114 | 1.0 | 5.0 | 0.00 | 0.00 | 0.00 | 62 | 1010.9 |
| 20260831171656 | 91 | 79 | 2.0 | 5.0 | 0.00 | 0.00 | 0.00 | 62 | 1011.0 |
| 20260831171555 | 91 | 79 | 3.0 | 5.0 | 0.00 | 0.00 | 0.00 | 63 | 1011.1 |
| 20260831171455 | 91 | 102 | 2.0 | 5.0 | 0.00 | 0.00 | 0.00 | 63 | 1011.0 |
| 20260831171355 | 91 | 97 | 2.0 | 5.0 | 0.00 | 0.00 | 0.00 | 63 | 1011.0 |
| 20260831171255 | 91 | 180 | 1.0 | 5.0 | 0.00 | 0.00 | 0.00 | 64 | 1011.0 |
| 20260831171157 | 90 | 268 | 1.0 | 5.0 | 0.00 | 0.00 | 0.00 | 64 | 1011.0 |
| 20260831171055 | 90 | 268 | 2.0 | 5.0 | 0.00 | 0.00 | 0.00 | 64 | 1011.0 |
| 20260831170955 | 90 | 272 | 2.0 | 5.0 | 0.00 | 0.00 | 0.00 | 64 | 1011.0 |
| 20260831170857 | 90 | 278 | 1.0 | 6.0 | 0.00 | 0.00 | 0.00 | 64 | 1011.0 |
| 20260831170756 | 90 | 279 | 1.0 | 6.0 | 0.00 | 0.00 | 0.00 | 64 | 1011.0 |
| 20260831170657 | 90 | 279 | 3.0 | 6.0 | 0.00 | 0.00 | 0.00 | 64 | 1011.0 |
| 20260831170554 | 90 | 279 | 3.0 | 6.0 | 0.00 | 0.00 | 0.00 | 63 | 1010.9 |
| 20260831170455 | 90 | 283 | 2.0 | 6.0 | 0.00 | 0.00 | 0.00 | 63 | 1011.0 |
| 20260831170355 | 91 | 285 | 3.0 | 6.0 | 0.00 | 0.00 | 0.00 | 63 | 1011.0 |
| 20260831170256 | 91 | 285 | 3.0 | 6.0 | 0.00 | 0.00 | 0.00 | 63 | 1011.0 |
| 20260831170155 | 91 | 295 | 4.0 | 6.0 | 0.00 | 0.00 | 0.00 | 63 | 1010.9 |
| 20260831170056 | 91 | 306 | 5.0 | 6.0 | 0.00 | 0.00 | 0.00 | 63 | 1011.0 |
| 20260831165956 | 91 | 305 | 5.0 | 6.0 | 0.00 | 0.00 | 0.00 | 63 | 1011.0 |
| 20260831165854 | 92 | 343 | 5.0 | 6.0 | 0.00 | 0.00 | 0.00 | 63 | 1011.0 |
| 20260831165756 | 92 | 345 | 5.0 | 6.0 | 0.00 | 0.00 | 0.00 | 63 | 1011.0 |
| 20260831165656 | 92 | 334 | 5.0 | 6.0 | 0.00 | 0.00 | 0.00 | 62 | 1011.0 |
| 20260831165551 | 92 | 0 | 5.0 | 6.0 | 0.00 | 0.00 | 0.00 | 62 | 1011.0 |
| 20260831165449 | 92 | 283 | 4.0 | 6.0 | 0.00 | 0.00 | 0.00 | 62 | 1011.0 |
| 20260831165345 | 92 | 319 | 4.0 | 5.0 | 0.00 | 0.00 | 0.00 | 62 | 1011.0 |
| 20260831165233 | 93 | 329 | 2.0 | 4.0 | 0.00 | 0.00 | 0.00 | 62 | 1011.1 |
| 20260831165132 | 93 | 44 | 2.0 | 4.0 | 0.00 | 0.00 | 0.00 | 62 | 1011.1 |
| 20260831165030 | 93 | 37 | 2.0 | 4.0 | 0.00 | 0.00 | 0.00 | 63 | 1011.1 |
| 20260831164931 | 93 | 240 | 2.0 | 4.0 | 0.00 | 0.00 | 0.00 | 64 | 1011.1 |
| 20260831164832 | 92 | 275 | 2.0 | 4.0 | 0.00 | 0.00 | 0.00 | 64 | 1011.1 |
| 20260831164732 | 91 | 224 | 1.0 | 4.0 | 0.00 | 0.00 | 0.00 | 64 | 1011.0 |
| 20260831164632 | 91 | 131 | 0.0 | 4.0 | 0.00 | 0.00 | 0.00 | 64 | 1011.0 |
| 20260831164531 | 91 | 131 | 0.0 | 4.0 | 0.00 | 0.00 | 0.00 | 65 | 1011.0 |
| 20260831164433 | 91 | 131 | 0.0 | 4.0 | 0.00 | 0.00 | 0.00 | 65 | 1011.0 |
| 20260831164333 | 91 | 131 | 0.0 | 5.0 | 0.00 | 0.00 | 0.00 | 65 | 1011.0 |
| 20260831164232 | 91 | 131 | 0.0 | 5.0 | 0.00 | 0.00 | 0.00 | 65 | 1011.0 |
| 20260831164130 | 91 | 131 | 0.0 | 5.0 | 0.00 | 0.00 | 0.00 | 65 | 1011.0 |
| 20260831164031 | 90 | 131 | 0.0 | 5.0 | 0.00 | 0.00 | 0.00 | 65 | 1011.0 |
| 20260831163932 | 90 | 131 | 2.0 | 5.0 | 0.00 | 0.00 | 0.00 | 66 | 1011.1 |
| 20260831163831 | 90 | 131 | 2.0 | 9.0 | 0.00 | 0.00 | 0.00 | 66 | 1011.1 |
| 20260831163733 | 90 | 118 | 2.0 | 9.0 | 0.00 | 0.00 | 0.00 | 66 | 1011.0 |
| 20260831163631 | 90 | 125 | 2.0 | 9.0 | 0.00 | 0.00 | 0.00 | 66 | 1011.1 |
| 20260831163530 | 90 | 125 | 3.0 | 9.0 | 0.00 | 0.00 | 0.00 | 66 | 1011.1 |
| 20260831163432 | 90 | 116 | 2.0 | 9.0 | 0.00 | 0.00 | 0.00 | 66 | 1011.1 |
| 20260831163331 | 90 | 99 | 2.0 | 9.0 | 0.00 | 0.00 | 0.00 | 66 | 1011.1 |
| 20260831163232 | 90 | 102 | 2.0 | 9.0 | 0.00 | 0.00 | 0.00 | 66 | 1011.1 |
| 20260831163133 | 90 | 113 | 2.0 | 9.0 | 0.00 | 0.00 | 0.00 | 65 | 1011.1 |
| 20260831163033 | 90 | 114 | 4.0 | 9.0 | 0.00 | 0.00 | 0.00 | 64 | 1011.1 |
| 20260831162932 | 91 | 83 | 5.0 | 9.0 | 0.00 | 0.00 | 0.00 | 65 | 1011.2 |
| 20260831162832 | 91 | 90 | 4.0 | 7.0 | 0.00 | 0.00 | 0.00 | 65 | 1011.1 |
| 20260831162732 | 91 | 110 | 1.0 | 5.0 | 0.00 | 0.00 | 0.00 | 65 | 1011.1 |
| 20260831162632 | 90 | 58 | 0.0 | 7.0 | 0.00 | 0.00 | 0.00 | 65 | 1011.1 |
| 20260831162532 | 90 | 58 | 0.0 | 7.0 | 0.00 | 0.00 | 0.00 | 65 | 1011.1 |
| 20260831162432 | 90 | 54 | 1.0 | 7.0 | 0.00 | 0.00 | 0.00 | 65 | 1011.1 |
| 20260831162331 | 90 | 54 | 1.0 | 7.0 | 0.00 | 0.00 | 0.00 | 65 | 1011.1 |
| 20260831162232 | 90 | 54 | 3.0 | 7.0 | 0.00 | 0.00 | 0.00 | 65 | 1011.1 |
| 20260831162132 | 90 | 54 | 3.0 | 7.0 | 0.00 | 0.00 | 0.00 | 66 | 1011.1 |
| 20260831162032 | 89 | 82 | 2.0 | 7.0 | 0.00 | 0.00 | 0.00 | 66 | 1011.1 |
| 20260831161932 | 90 | 54 | 4.0 | 7.0 | 0.00 | 0.00 | 0.00 | 65 | 1011.1 |
| 20260831161803 | 90 | 45 | 5.0 | 7.0 | 0.00 | 0.00 | 0.00 | 65 | 1011.1 |
| 20260831161703 | 90 | 49 | 5.0 | 7.0 | 0.00 | 0.00 | 0.00 | 65 | 1011.2 |
| 20260831161604 | 90 | 35 | 5.0 | 7.0 | 0.00 | 0.00 | 0.00 | 65 | 1011.2 |
| 20260831161503 | 90 | 58 | 4.0 | 7.0 | 0.00 | 0.00 | 0.00 | 65 | 1011.2 |
| 20260831161403 | 90 | 66 | 3.0 | 5.0 | 0.00 | 0.00 | 0.00 | 65 | 1011.1 |
| 20260831161302 | 89 | 59 | 1.0 | 5.0 | 0.00 | 0.00 | 0.00 | 65 | 1011.2 |
| 20260831161204 | 89 | 302 | 1.0 | 5.0 | 0.00 | 0.00 | 0.00 | 65 | 1011.2 |
| 20260831161102 | 90 | 302 | 2.0 | 5.0 | 0.00 | 0.00 | 0.00 | 64 | 1011.1 |
| 20260831161002 | 90 | 302 | 2.0 | 5.0 | 0.00 | 0.00 | 0.00 | 64 | 1011.2 |
| 20260831160902 | 90 | 298 | 2.0 | 5.0 | 0.00 | 0.00 | 0.00 | 64 | 1011.1 |
| 20260831160803 | 90 | 298 | 3.0 | 5.0 | 0.00 | 0.00 | 0.00 | 64 | 1011.1 |
| 20260831160703 | 90 | 299 | 3.0 | 5.0 | 0.00 | 0.00 | 0.00 | 64 | 1011.1 |
| 20260831160602 | 90 | 292 | 2.0 | 5.0 | 0.00 | 0.00 | 0.00 | 65 | 1011.2 |
| 20260831160505 | 90 | 279 | 0.0 | 5.0 | 0.00 | 0.00 | 0.00 | 66 | 1011.2 |
| 20260831160402 | 89 | 279 | 1.0 | 5.0 | 0.00 | 0.00 | 0.00 | 66 | 1011.2 |
| 20260831160302 | 89 | 279 | 1.0 | 5.0 | 0.00 | 0.00 | 0.00 | 66 | 1011.3 |
| 20260831160203 | 89 | 279 | 2.0 | 5.0 | 0.00 | 0.00 | 0.00 | 66 | 1011.2 |
| 20260831160104 | 89 | 279 | 2.0 | 5.0 | 0.00 | 0.00 | 0.00 | 66 | 1011.3 |
| 20260831160002 | 89 | 279 | 2.0 | 5.0 | 0.00 | 0.00 | 0.00 | 66 | 1011.3 |
| 20260831155903 | 89 | 279 | 3.0 | 5.0 | 0.00 | 0.00 | 0.00 | 66 | 1011.3 |
| 20260831155803 | 89 | 278 | 3.0 | 5.0 | 0.00 | 0.00 | 0.00 | 67 | 1011.3 |
| 20260831155702 | 89 | 237 | 1.0 | 3.0 | 0.00 | 0.00 | 0.00 | 67 | 1011.2 |
| 20260831155603 | 89 | 189 | 1.0 | 3.0 | 0.00 | 0.00 | 0.00 | 67 | 1011.2 |
| 20260831155502 | 89 | 189 | 1.0 | 3.0 | 0.00 | 0.00 | 0.00 | 67 | 1011.2 |
| 20260831155402 | 89 | 189 | 2.0 | 3.0 | 0.00 | 0.00 | 0.00 | 67 | 1011.3 |
| 20260831155306 | 89 | 192 | 2.0 | 3.0 | 0.00 | 0.00 | 0.00 | 67 | 1011.2 |
| 20260831155202 | 89 | 226 | 1.0 | 3.0 | 0.00 | 0.00 | 0.00 | 67 | 1011.2 |
| 20260831155103 | 88 | 272 | 1.0 | 3.0 | 0.00 | 0.00 | 0.00 | 67 | 1011.2 |
| 20260831155002 | 88 | 272 | 2.0 | 3.0 | 0.00 | 0.00 | 0.00 | 67 | 1011.3 |
| 20260831154903 | 88 | 272 | 2.0 | 3.0 | 0.00 | 0.00 | 0.00 | 67 | 1011.2 |
| 20260831154803 | 88 | 261 | 3.0 | 3.0 | 0.00 | 0.00 | 0.00 | 67 | 1011.2 |
| 20260831154703 | 88 | 261 | 3.0 | 3.0 | 0.00 | 0.00 | 0.00 | 67 | 1011.2 |
| 20260831154603 | 89 | 189 | 2.0 | 3.0 | 0.00 | 0.00 | 0.00 | 67 | 1011.1 |
| 20260831154505 | 89 | 186 | 1.0 | 3.0 | 0.00 | 0.00 | 0.00 | 67 | 1011.2 |
| 20260831154403 | 89 | 178 | 1.0 | 3.0 | 0.00 | 0.00 | 0.00 | 67 | 1011.2 |
| 20260831154301 | 89 | 152 | 0.0 | 0.0 | 0.00 | 0.00 | 0.00 | 67 | 1011.2 |
| 20260831154203 | 89 | 151 | 0.0 | 0.0 | 0.00 | 0.00 | 0.00 | 66 | 1011.1 |
| 20260831154103 | 89 | 149 | 0.0 | 0.0 | 0.00 | 0.00 | 0.00 | 67 | 1011.2 |
| 20260831154004 | 89 | 149 | 0.0 | 0.0 | 0.00 | 0.00 | 0.00 | 67 | 1011.1 |
| 20260831153903 | 90 | 149 | 0.0 | 0.0 | 0.00 | 0.00 | 0.00 | 66 | 1011.1 |
| 20260831153802 | 90 | 149 | 0.0 | 0.0 | 0.00 | 0.00 | 0.00 | 66 | 1011.1 |
| 20260831153703 | 90 | 148 | 0.0 | 0.0 | 0.00 | 0.00 | 0.00 | 65 | 1011.1 |
| 20260831153602 | 89 | 148 | 0.0 | 0.0 | 0.00 | 0.00 | 0.00 | 65 | 1011.2 |
| 20260831153500 | 90 | 151 | 0.0 | 0.0 | 0.00 | 0.00 | 0.00 | 65 | 1011.2 |
| 20260831153358 | 90 | 151 | 0.0 | 0.0 | 0.00 | 0.00 | 0.00 | 65 | 1011.1 |
| 20260831153254 | 90 | 151 | 0.0 | 0.0 | 0.00 | 0.00 | 0.00 | 66 | 1011.1 |
| 20260831153152 | 90 | 151 | 0.0 | 0.0 | 0.00 | 0.00 | 0.00 | 66 | 1011.2 |
| 20260831153053 | 89 | 154 | 0.0 | 2.0 | 0.00 | 0.00 | 0.00 | 66 | 1011.1 |
| 20260831152954 | 89 | 158 | 0.0 | 3.0 | 0.00 | 0.00 | 0.00 | 66 | 1011.1 |
| 20260831152854 | 89 | 159 | 0.0 | 3.0 | 0.00 | 0.00 | 0.00 | 68 | 1011.2 |
| 20260831152754 | 89 | 165 | 0.0 | 4.0 | 0.00 | 0.00 | 0.00 | 68 | 1011.1 |
| 20260831152654 | 89 | 172 | 0.0 | 4.0 | 0.00 | 0.00 | 0.00 | 68 | 1011.1 |
| 20260831152554 | 88 | 172 | 0.0 | 4.0 | 0.00 | 0.00 | 0.00 | 68 | 1011.1 |
| 20260831152453 | 89 | 172 | 0.0 | 4.0 | 0.00 | 0.00 | 0.00 | 68 | 1011.1 |
| 20260831152352 | 88 | 131 | 0.0 | 4.0 | 0.00 | 0.00 | 0.00 | 68 | 1011.1 |
| 20260831152253 | 88 | 117 | 0.0 | 4.0 | 0.00 | 0.00 | 0.00 | 68 | 1011.1 |
| 20260831152154 | 88 | 117 | 1.0 | 4.0 | 0.00 | 0.00 | 0.00 | 68 | 1011.1 |
| 20260831152053 | 88 | 116 | 2.0 | 4.0 | 0.00 | 0.00 | 0.00 | 68 | 1011.1 |
| 20260831151954 | 88 | 117 | 2.0 | 4.0 | 0.00 | 0.00 | 0.00 | 68 | 1011.1 |
| 20260831151853 | 88 | 117 | 3.0 | 4.0 | 0.00 | 0.00 | 0.00 | 69 | 1011.2 |
| 20260831151753 | 88 | 117 | 3.0 | 4.0 | 0.00 | 0.00 | 0.00 | 68 | 1011.2 |
| 20260831151652 | 88 | 137 | 2.0 | 4.0 | 0.00 | 0.00 | 0.00 | 69 | 1011.2 |
| 20260831151553 | 89 | 144 | 2.0 | 4.0 | 0.00 | 0.00 | 0.00 | 69 | 1011.1 |
| 20260831151453 | 88 | 155 | 2.0 | 4.0 | 0.00 | 0.00 | 0.00 | 70 | 1011.1 |
| 20260831151353 | 88 | 157 | 2.0 | 4.0 | 0.00 | 0.00 | 0.00 | 71 | 1011.1 |
| 20260831151253 | 88 | 145 | 1.0 | 4.0 | 0.00 | 0.00 | 0.00 | 71 | 1011.1 |
| 20260831151152 | 88 | 144 | 1.0 | 4.0 | 0.00 | 0.00 | 0.00 | 71 | 1011.1 |
| 20260831151054 | 87 | 141 | 2.0 | 4.0 | 0.00 | 0.00 | 0.00 | 71 | 1011.1 |
| 20260831150953 | 87 | 141 | 3.0 | 4.0 | 0.00 | 0.00 | 0.00 | 71 | 1011.1 |
| 20260831150854 | 87 | 142 | 3.0 | 4.0 | 0.00 | 0.00 | 0.00 | 71 | 1011.1 |
| 20260831150753 | 87 | 145 | 2.0 | 3.0 | 0.00 | 0.00 | 0.00 | 71 | 1011.1 |
| 20260831150653 | 87 | 169 | 1.0 | 3.0 | 0.00 | 0.00 | 0.00 | 72 | 1011.1 |
| 20260831150552 | 87 | 210 | 0.0 | 3.0 | 0.00 | 0.00 | 0.00 | 73 | 1011.0 |
| 20260831150452 | 87 | 251 | 0.0 | 3.0 | 0.00 | 0.00 | 0.00 | 75 | 1011.0 |
| 20260831150354 | 86 | 252 | 0.0 | 3.0 | 0.00 | 0.00 | 0.00 | 76 | 1011.0 |
| 20260831150253 | 86 | 252 | 0.0 | 3.0 | 0.00 | 0.00 | 0.00 | 76 | 1011.0 |
| 20260831150154 | 86 | 252 | 1.0 | 3.0 | 0.00 | 0.00 | 0.00 | 76 | 1010.9 |
| 20260831150052 | 86 | 252 | 2.0 | 4.0 | 0.00 | 0.00 | 0.00 | 76 | 1011.0 |
| 20260831145953 | 86 | 251 | 2.0 | 4.0 | 0.00 | 0.00 | 0.00 | 76 | 1011.0 |
| 20260831145853 | 86 | 250 | 2.0 | 5.0 | 0.00 | 0.00 | 0.00 | 76 | 1010.9 |
| 20260831145751 | 86 | 244 | 2.0 | 5.0 | 0.00 | 0.00 | 0.00 | 76 | 1010.9 |
| 20260831145654 | 86 | 241 | 2.0 | 5.0 | 0.00 | 0.00 | 0.00 | 76 | 1011.0 |
| 20260831145554 | 86 | 241 | 2.0 | 5.0 | 0.00 | 0.00 | 0.00 | 77 | 1010.9 |
| 20260831145451 | 86 | 240 | 1.0 | 5.0 | 0.00 | 0.00 | 0.00 | 77 | 1010.9 |
| 20260831145352 | 86 | 238 | 2.0 | 5.0 | 0.00 | 0.00 | 0.00 | 76 | 1011.0 |
| 20260831145253 | 86 | 238 | 2.0 | 5.0 | 0.00 | 0.00 | 0.00 | 77 | 1010.9 |
| 20260831145152 | 86 | 238 | 3.0 | 5.0 | 0.00 | 0.00 | 0.00 | 76 | 1011.0 |
| 20260831145053 | 87 | 244 | 2.0 | 5.0 | 0.00 | 0.00 | 0.00 | 77 | 1011.0 |
| 20260831144953 | 86 | 248 | 1.0 | 5.0 | 0.00 | 0.00 | 0.00 | 77 | 1011.0 |
| 20260831144853 | 86 | 148 | 0.0 | 3.0 | 0.00 | 0.00 | 0.00 | 77 | 1011.0 |
| 20260831144753 | 86 | 148 | 0.0 | 3.0 | 0.00 | 0.00 | 0.00 | 77 | 1011.0 |
| 20260831144653 | 86 | 149 | 0.0 | 3.0 | 0.00 | 0.00 | 0.00 | 77 | 1011.0 |
| 20260831144553 | 86 | 149 | 1.0 | 3.0 | 0.00 | 0.00 | 0.00 | 78 | 1011.0 |
| 20260831144451 | 86 | 148 | 2.0 | 3.0 | 0.00 | 0.00 | 0.00 | 78 | 1010.9 |
| 20260831144351 | 86 | 148 | 3.0 | 3.0 | 0.00 | 0.00 | 0.00 | 78 | 1010.9 |
| 20260831144253 | 86 | 149 | 2.0 | 3.0 | 0.00 | 0.00 | 0.00 | 78 | 1010.9 |
| 20260831144152 | 86 | 151 | 0.0 | 3.0 | 0.00 | 0.00 | 0.00 | 79 | 1010.9 |
| 20260831144051 | 86 | 199 | 0.0 | 0.0 | 0.00 | 0.00 | 0.00 | 79 | 1010.9 |
| 20260831143952 | 85 | 224 | 0.0 | 0.0 | 0.00 | 0.00 | 0.00 | 79 | 1010.9 |
| 20260831143855 | 85 | 224 | 0.0 | 0.0 | 0.00 | 0.00 | 0.00 | 80 | 1010.9 |
| 20260831143753 | 85 | 224 | 0.0 | 0.0 | 0.00 | 0.00 | 0.00 | 80 | 1010.9 |
| 20260831143653 | 85 | 224 | 0.0 | 0.0 | 0.00 | 0.00 | 0.00 | 80 | 1010.9 |
| 20260831143551 | 85 | 230 | 0.0 | 0.0 | 0.00 | 0.00 | 0.00 | 80 | 1010.8 |
| 20260831143451 | 85 | 228 | 0.0 | 0.0 | 0.00 | 0.00 | 0.00 | 80 | 1010.9 |
| 20260831143351 | 85 | 230 | 0.0 | 0.0 | 0.00 | 0.00 | 0.00 | 80 | 1010.9 |
| 20260831143252 | 85 | 230 | 0.0 | 0.0 | 0.00 | 0.00 | 0.00 | 80 | 1010.8 |
| 20260831143152 | 85 | 230 | 0.0 | 0.0 | 0.00 | 0.00 | 0.00 | 80 | 1010.9 |
| 20260831143052 | 85 | 230 | 0.0 | 0.0 | 0.00 | 0.00 | 0.00 | 80 | 1010.9 |
| 20260831142951 | 85 | 230 | 0.0 | 0.0 | 0.00 | 0.00 | 0.00 | 80 | 1010.8 |
| 20260831142852 | 85 | 226 | 0.0 | 0.0 | 0.00 | 0.00 | 0.00 | 80 | 1010.9 |
| 20260831142752 | 85 | 226 | 0.0 | 0.0 | 0.00 | 0.00 | 0.00 | 80 | 1010.9 |
| 20260831142651 | 85 | 226 | 0.0 | 0.0 | 0.00 | 0.00 | 0.00 | 80 | 1010.9 |
| 20260831142553 | 85 | 212 | 0.0 | 0.0 | 0.00 | 0.00 | 0.00 | 80 | 1011.0 |
| 20260831142452 | 85 | 199 | 0.0 | 1.0 | 0.00 | 0.00 | 0.00 | 80 | 1010.9 |
| 20260831142352 | 85 | 199 | 0.0 | 1.0 | 0.00 | 0.00 | 0.00 | 80 | 1010.9 |
| 20260831142251 | 85 | 199 | 0.0 | 1.0 | 0.00 | 0.00 | 0.00 | 81 | 1010.9 |
| 20260831142152 | 85 | 199 | 0.0 | 1.0 | 0.00 | 0.00 | 0.00 | 81 | 1010.8 |
| 20260831142052 | 85 | 199 | 0.0 | 1.0 | 0.00 | 0.00 | 0.00 | 81 | 1010.8 |
| 20260831141952 | 85 | 199 | 0.0 | 1.0 | 0.00 | 0.00 | 0.00 | 81 | 1010.9 |
| 20260831141852 | 85 | 142 | 0.0 | 1.0 | 0.00 | 0.00 | 0.00 | 81 | 1010.9 |
| 20260831141752 | 85 | 142 | 0.0 | 2.0 | 0.00 | 0.00 | 0.00 | 81 | 1010.9 |
| 20260831141653 | 85 | 142 | 0.0 | 2.0 | 0.00 | 0.00 | 0.00 | 82 | 1010.9 |
| 20260831141551 | 85 | 142 | 0.0 | 2.0 | 0.00 | 0.00 | 0.00 | 82 | 1010.9 |
| 20260831141453 | 85 | 142 | 0.0 | 2.0 | 0.00 | 0.00 | 0.00 | 82 | 1010.9 |
| 20260831141353 | 84 | 141 | 0.0 | 2.0 | 0.00 | 0.00 | 0.00 | 82 | 1010.9 |
| 20260831141252 | 84 | 141 | 0.0 | 2.0 | 0.00 | 0.00 | 0.00 | 82 | 1010.8 |
| 20260831141151 | 84 | 141 | 0.0 | 2.0 | 0.00 | 0.00 | 0.00 | 83 | 1010.8 |
| 20260831141053 | 84 | 141 | 0.0 | 2.0 | 0.00 | 0.00 | 0.00 | 83 | 1010.9 |
| 20260831140952 | 84 | 140 | 1.0 | 2.0 | 0.00 | 0.00 | 0.00 | 83 | 1010.8 |
| 20260831140851 | 84 | 140 | 1.0 | 2.0 | 0.00 | 0.00 | 0.00 | 83 | 1010.9 |
| 20260831140753 | 84 | 138 | 0.0 | 2.0 | 0.00 | 0.00 | 0.00 | 83 | 1010.8 |
| 20260831140652 | 84 | 89 | 0.0 | 0.0 | 0.00 | 0.00 | 0.00 | 83 | 1010.9 |
| 20260831140551 | 84 | 89 | 0.0 | 0.0 | 0.00 | 0.00 | 0.00 | 83 | 1010.9 |
| 20260831140451 | 84 | 89 | 0.0 | 0.0 | 0.00 | 0.00 | 0.00 | 83 | 1010.8 |
| 20260831140353 | 83 | 89 | 0.0 | 0.0 | 0.00 | 0.00 | 0.00 | 83 | 1010.8 |
| 20260831140251 | 83 | 89 | 0.0 | 0.0 | 0.00 | 0.00 | 0.00 | 84 | 1010.7 |
| 20260831140152 | 83 | 89 | 0.0 | 0.0 | 0.00 | 0.00 | 0.00 | 84 | 1010.7 |
| 20260831140051 | 83 | 87 | 0.0 | 0.0 | 0.00 | 0.00 | 0.00 | 84 | 1010.7 |
| 20260831135952 | 83 | 87 | 0.0 | 0.0 | 0.00 | 0.00 | 0.00 | 84 | 1010.8 |
| 20260831135852 | 83 | 87 | 0.0 | 0.0 | 0.00 | 0.00 | 0.00 | 84 | 1010.7 |
| 20260831135751 | 83 | 87 | 0.0 | 0.0 | 0.00 | 0.00 | 0.00 | 84 | 1010.7 |
| 20260831135652 | 83 | 87 | 0.0 | 0.0 | 0.00 | 0.00 | 0.00 | 84 | 1010.6 |
| 20260831135551 | 83 | 87 | 0.0 | 0.0 | 0.00 | 0.00 | 0.00 | 85 | 1010.6 |
| 20260831135450 | 83 | 89 | 0.0 | 0.0 | 0.00 | 0.00 | 0.00 | 85 | 1010.6 |
| 20260831135349 | 83 | 87 | 0.0 | 0.0 | 0.00 | 0.00 | 0.00 | 85 | 1010.6 |
| 20260831135240 | 83 | 87 | 0.0 | 0.0 | 0.00 | 0.00 | 0.00 | 85 | 1010.5 |
| 20260831135139 | 83 | 87 | 0.0 | 0.0 | 0.00 | 0.00 | 0.00 | 85 | 1010.5 |
| 20260831135033 | 83 | 87 | 0.0 | 0.0 | 0.00 | 0.00 | 0.00 | 85 | 1010.5 |
| 20260831134932 | 83 | 87 | 0.0 | 0.0 | 0.00 | 0.00 | 0.00 | 86 | 1010.5 |
| 20260831134831 | 82 | 87 | 0.0 | 0.0 | 0.00 | 0.00 | 0.00 | 86 | 1010.5 |
| 20260831134732 | 82 | 87 | 0.0 | 0.0 | 0.00 | 0.00 | 0.00 | 86 | 1010.4 |
| 20260831134631 | 82 | 87 | 0.0 | 0.0 | 0.00 | 0.00 | 0.00 | 87 | 1010.5 |
| 20260831134532 | 82 | 87 | 0.0 | 0.0 | 0.00 | 0.00 | 0.00 | 87 | 1010.5 |
| 20260831134433 | 82 | 87 | 0.0 | 0.0 | 0.00 | 0.00 | 0.00 | 87 | 1010.4 |
| 20260831134333 | 82 | 87 | 0.0 | 0.0 | 0.00 | 0.00 | 0.00 | 87 | 1010.4 |
| 20260831134232 | 82 | 87 | 0.0 | 0.0 | 0.00 | 0.00 | 0.00 | 87 | 1010.4 |
| 20260831134131 | 82 | 87 | 0.0 | 0.0 | 0.00 | 0.00 | 0.00 | 87 | 1010.5 |
| 20260831134034 | 82 | 87 | 0.0 | 0.0 | 0.00 | 0.00 | 0.00 | 87 | 1010.5 |
| 20260831133931 | 81 | 87 | 0.0 | 0.0 | 0.00 | 0.00 | 0.00 | 87 | 1010.4 |
| 20260831133824 | 81 | 87 | 0.0 | 0.0 | 0.00 | 0.00 | 0.00 | 87 | 1010.5 |
| 20260831133723 | 81 | 87 | 0.0 | 0.0 | 0.00 | 0.00 | 0.00 | 88 | 1010.5 |
| 20260831133622 | 81 | 87 | 0.0 | 0.0 | 0.00 | 0.00 | 0.00 | 88 | 1010.5 |
| 20260831133520 | 81 | 87 | 0.0 | 0.0 | 0.00 | 0.00 | 0.00 | 88 | 1010.5 |
| 20260831133413 | 81 | 87 | 0.0 | 0.0 | 0.00 | 0.00 | 0.00 | 88 | 1010.6 |
| 20260831133304 | 81 | 87 | 0.0 | 0.0 | 0.00 | 0.00 | 0.00 | 88 | 1010.6 |
| 20260831133204 | 81 | 87 | 0.0 | 0.0 | 0.00 | 0.00 | 0.00 | 89 | 1010.5 |
| 20260831133101 | 81 | 87 | 0.0 | 0.0 | 0.00 | 0.00 | 0.00 | 89 | 1010.5 |
| 20260831133003 | 81 | 87 | 0.0 | 0.0 | 0.00 | 0.00 | 0.00 | 89 | 1010.4 |
| 20260831132903 | 81 | 87 | 0.0 | 0.0 | 0.00 | 0.00 | 0.00 | 89 | 1010.5 |
| 20260831132802 | 80 | 87 | 0.0 | 0.0 | 0.00 | 0.00 | 0.00 | 90 | 1010.5 |
| 20260831132704 | 80 | 87 | 0.0 | 0.0 | 0.00 | 0.00 | 0.00 | 90 | 1010.5 |
| 20260831132601 | 80 | 87 | 0.0 | 0.0 | 0.00 | 0.00 | 0.00 | 90 | 1010.5 |
| 20260831132504 | 80 | 87 | 0.0 | 0.0 | 0.00 | 0.00 | 0.00 | 90 | 1010.5 |
| 20260831132403 | 80 | 87 | 0.0 | 0.0 | 0.00 | 0.00 | 0.00 | 90 | 1010.5 |
| 20260831132306 | 80 | 87 | 0.0 | 0.0 | 0.00 | 0.00 | 0.00 | 90 | 1010.5 |
| 20260831132204 | 80 | 87 | 0.0 | 0.0 | 0.00 | 0.00 | 0.00 | 90 | 1010.5 |
| 20260831132104 | 80 | 87 | 0.0 | 0.0 | 0.00 | 0.00 | 0.00 | 90 | 1010.6 |
| 20260831132002 | 80 | 87 | 0.0 | 0.0 | 0.00 | 0.00 | 0.00 | 90 | 1010.5 |
| 20260831131902 | 80 | 87 | 0.0 | 0.0 | 0.00 | 0.00 | 0.00 | 91 | 1010.5 |
| 20260831131802 | 80 | 87 | 0.0 | 2.0 | 0.00 | 0.00 | 0.00 | 91 | 1010.5 |
| 20260831131704 | 80 | 87 | 0.0 | 2.0 | 0.00 | 0.00 | 0.00 | 91 | 1010.5 |
| 20260831131604 | 80 | 87 | 0.0 | 4.0 | 0.00 | 0.00 | 0.00 | 91 | 1010.5 |
| 20260831131504 | 79 | 87 | 0.0 | 4.0 | 0.00 | 0.00 | 0.00 | 91 | 1010.5 |
| 20260831131403 | 79 | 87 | 0.0 | 4.0 | 0.00 | 0.00 | 0.00 | 91 | 1010.5 |
| 20260831131302 | 79 | 87 | 0.0 | 4.0 | 0.00 | 0.00 | 0.00 | 91 | 1010.5 |
| 20260831131203 | 79 | 89 | 0.0 | 4.0 | 0.00 | 0.00 | 0.00 | 91 | 1010.5 |
| 20260831131102 | 79 | 89 | 0.0 | 4.0 | 0.00 | 0.00 | 0.00 | 91 | 1010.4 |
| 20260831131004 | 79 | 89 | 0.0 | 4.0 | 0.00 | 0.00 | 0.00 | 91 | 1010.4 |
| 20260831130903 | 79 | 89 | 1.0 | 4.0 | 0.00 | 0.00 | 0.00 | 91 | 1010.4 |
| 20260831130803 | 79 | 89 | 2.0 | 4.0 | 0.00 | 0.00 | 0.00 | 91 | 1010.4 |
| 20260831130702 | 79 | 90 | 2.0 | 4.0 | 0.00 | 0.00 | 0.00 | 92 | 1010.3 |
| 20260831130603 | 79 | 93 | 2.0 | 3.0 | 0.00 | 0.00 | 0.00 | 92 | 1010.4 |
| 20260831130502 | 79 | 131 | 2.0 | 3.0 | 0.00 | 0.00 | 0.00 | 92 | 1010.3 |
| 20260831130405 | 79 | 142 | 1.0 | 3.0 | 0.00 | 0.00 | 0.00 | 92 | 1010.3 |
| 20260831130303 | 79 | 144 | 2.0 | 3.0 | 0.00 | 0.00 | 0.00 | 92 | 1010.4 |
| 20260831130203 | 78 | 145 | 2.0 | 3.0 | 0.00 | 0.00 | 0.00 | 92 | 1010.4 |
| 20260831130004 | 78 | 149 | 1.0 | 2.0 | 0.00 | 0.00 | 0.00 | 92 | 1010.3 |
| 20260831125903 | 78 | 158 | 0.0 | 2.0 | 0.00 | 0.00 | 0.00 | 92 | 1010.3 |
| 20260831125802 | 78 | 158 | 0.0 | 0.0 | 0.00 | 0.00 | 0.00 | 92 | 1010.3 |
| 20260831125703 | 78 | 158 | 0.0 | 0.0 | 0.00 | 0.00 | 0.00 | 92 | 1010.3 |
| 20260831125603 | 78 | 158 | 0.0 | 0.0 | 0.00 | 0.00 | 0.00 | 92 | 1010.3 |
| 20260831125504 | 78 | 158 | 0.0 | 0.0 | 0.00 | 0.00 | 0.00 | 92 | 1010.2 |
| 20260831125403 | 78 | 158 | 0.0 | 0.0 | 0.00 | 0.00 | 0.00 | 92 | 1010.3 |
| 20260831125306 | 78 | 158 | 0.0 | 0.0 | 0.00 | 0.00 | 0.00 | 92 | 1010.3 |
| 20260831125203 | 78 | 158 | 0.0 | 0.0 | 0.00 | 0.00 | 0.00 | 92 | 1010.3 |
| 20260831125103 | 78 | 158 | 0.0 | 0.0 | 0.00 | 0.00 | 0.00 | 92 | 1010.3 |
| 20260831125003 | 78 | 158 | 0.0 | 0.0 | 0.00 | 0.00 | 0.00 | 92 | 1010.2 |
| 20260831124903 | 78 | 158 | 0.0 | 0.0 | 0.00 | 0.00 | 0.00 | 92 | 1010.2 |
| 20260831124802 | 78 | 158 | 0.0 | 0.0 | 0.00 | 0.00 | 0.00 | 92 | 1010.3 |
| 20260831124703 | 77 | 158 | 0.0 | 0.0 | 0.00 | 0.00 | 0.00 | 92 | 1010.3 |
| 20260831124604 | 77 | 158 | 0.0 | 0.0 | 0.00 | 0.00 | 0.00 | 92 | 1010.3 |
| 20260831124504 | 77 | 158 | 0.0 | 0.0 | 0.00 | 0.00 | 0.00 | 92 | 1010.3 |
| 20260831124404 | 77 | 158 | 0.0 | 0.0 | 0.00 | 0.00 | 0.00 | 92 | 1010.2 |
| 20260831124303 | 77 | 158 | 0.0 | 0.0 | 0.00 | 0.00 | 0.00 | 92 | 1010.2 |
| 20260831124202 | 77 | 158 | 0.0 | 0.0 | 0.00 | 0.00 | 0.00 | 92 | 1010.1 |
| 20260831124102 | 77 | 158 | 0.0 | 0.0 | 0.00 | 0.00 | 0.00 | 92 | 1010.1 |
| 20260831124004 | 77 | 158 | 0.0 | 0.0 | 0.00 | 0.00 | 0.00 | 92 | 1010.1 |
| 20260831123904 | 77 | 158 | 0.0 | 0.0 | 0.00 | 0.00 | 0.00 | 92 | 1010.1 |
| 20260831123803 | 77 | 159 | 0.0 | 0.0 | 0.00 | 0.00 | 0.00 | 92 | 1010.0 |
| 20260831123701 | 77 | 159 | 0.0 | 0.0 | 0.00 | 0.00 | 0.00 | 92 | 1010.0 |
| 20260831123604 | 77 | 161 | 0.0 | 0.0 | 0.00 | 0.00 | 0.00 | 92 | 1010.1 |
| 20260831123502 | 77 | 161 | 0.0 | 0.0 | 0.00 | 0.00 | 0.00 | 92 | 1010.1 |
| 20260831123402 | 77 | 162 | 0.0 | 0.0 | 0.00 | 0.00 | 0.00 | 92 | 1010.0 |
| 20260831123303 | 77 | 162 | 0.0 | 0.0 | 0.00 | 0.00 | 0.00 | 92 | 1010.0 |
| 20260831123202 | 77 | 164 | 0.0 | 0.0 | 0.00 | 0.00 | 0.00 | 92 | 1009.9 |
| 20260831123103 | 77 | 164 | 0.0 | 0.0 | 0.00 | 0.00 | 0.00 | 92 | 1009.9 |
| 20260831123003 | 77 | 164 | 0.0 | 0.0 | 0.00 | 0.00 | 0.00 | 92 | 1010.0 |
| 20260831122902 | 76 | 164 | 0.0 | 0.0 | 0.00 | 0.00 | 0.00 | 92 | 1009.9 |
| 20260831122803 | 76 | 164 | 0.0 | 0.0 | 0.00 | 0.00 | 0.00 | 92 | 1009.9 |
| 20260831122703 | 77 | 164 | 0.0 | 0.0 | 0.00 | 0.00 | 0.00 | 92 | 1009.9 |